Wetterdaten: Samstag, 22.02.2014
Datum Zeit Temp. Aussen +5cm Feuchte Auss Luftdruck Regen Sonnenschein Regendauer UV Solar Windben
22.02.2014 00:00 3,9 C 2,2 C 88 % 1009,8 hPa 0,0 l/m 0 min 0 min 0,0 UV-I 0 W/m 7,7 km/h (2 Bft)
22.02.2014 00:02 3,9 C 2,2 C 88 % 1009,8 hPa 0,0 l/m 0 min 0 min 0,0 UV-I 0 W/m 12,9 km/h (3 Bft)
22.02.2014 00:06 3,9 C 2,2 C 88 % 1009,9 hPa 0,0 l/m 0 min 0 min 0,0 UV-I 0 W/m 7,7 km/h (2 Bft)
22.02.2014 00:08 3,9 C 2,2 C 88 % 1009,8 hPa 0,0 l/m 0 min 0 min 0,0 UV-I 0 W/m 5,1 km/h (1 Bft)
22.02.2014 00:10 3,9 C 2,2 C 88 % 1009,8 hPa 0,0 l/m 0 min 0 min 0,0 UV-I 0 W/m 18,0 km/h (3 Bft)
22.02.2014 00:12 3,9 C 2,2 C 88 % 1009,9 hPa 0,0 l/m 0 min 0 min 0,0 UV-I 0 W/m 2,6 km/h (1 Bft)
22.02.2014 00:14 3,9 C 2,2 C 88 % 1009,9 hPa 0,0 l/m 0 min 0 min 0,0 UV-I 0 W/m 10,3 km/h (2 Bft)
22.02.2014 00:16 3,9 C 2,2 C 88 % 1009,9 hPa 0,0 l/m 0 min 0 min 0,0 UV-I 0 W/m 7,7 km/h (2 Bft)
22.02.2014 00:18 3,9 C 2,2 C 88 % 1009,9 hPa 0,0 l/m 0 min 0 min 0,0 UV-I 0 W/m 10,3 km/h (2 Bft)
22.02.2014 00:20 3,9 C 2,2 C 88 % 1009,8 hPa 0,0 l/m 0 min 0 min 0,0 UV-I 0 W/m 0,0 km/h (0 Bft)
22.02.2014 00:22 3,9 C 2,2 C 88 % 1009,8 hPa 0,0 l/m 0 min 0 min 0,0 UV-I 0 W/m 5,1 km/h (1 Bft)
22.02.2014 00:24 3,9 C 2,2 C 88 % 1009,8 hPa 0,0 l/m 0 min 0 min 0,0 UV-I 0 W/m 7,7 km/h (2 Bft)
22.02.2014 00:26 3,9 C 2,2 C 88 % 1009,8 hPa 0,0 l/m 0 min 0 min 0,0 UV-I 0 W/m 2,6 km/h (1 Bft)
22.02.2014 00:28 3,9 C 2,2 C 88 % 1009,8 hPa 0,0 l/m 0 min 0 min 0,0 UV-I 0 W/m 5,1 km/h (1 Bft)
22.02.2014 00:30 3,9 C 2,2 C 88 % 1009,8 hPa 0,0 l/m 0 min 0 min 0,0 UV-I 0 W/m 0,0 km/h (0 Bft)
22.02.2014 00:32 3,9 C 2,2 C 88 % 1009,8 hPa 0,0 l/m 0 min 0 min 0,0 UV-I 0 W/m 15,4 km/h (3 Bft)
22.02.2014 00:34 4,0 C 2,2 C 88 % 1009,8 hPa 0,0 l/m 0 min 0 min 0,0 UV-I 0 W/m 7,7 km/h (2 Bft)
22.02.2014 00:36 4,0 C 2,2 C 88 % 1009,7 hPa 0,0 l/m 0 min 0 min 0,0 UV-I 0 W/m 2,6 km/h (1 Bft)
22.02.2014 00:38 4,0 C 2,2 C 88 % 1009,7 hPa 0,0 l/m 0 min 0 min 0,0 UV-I 0 W/m 0,0 km/h (0 Bft)
22.02.2014 00:40 4,0 C 2,2 C 88 % 1009,7 hPa 0,0 l/m 0 min 0 min 0,0 UV-I 0 W/m 15,4 km/h (3 Bft)
22.02.2014 00:42 4,0 C 2,2 C 88 % 1009,7 hPa 0,0 l/m 0 min 0 min 0,0 UV-I 0 W/m 5,1 km/h (1 Bft)
22.02.2014 00:44 4,0 C 2,2 C 88 % 1009,7 hPa 0,0 l/m 0 min 0 min 0,0 UV-I 0 W/m 5,1 km/h (1 Bft)
22.02.2014 00:46 4,0 C 2,2 C 87 % 1009,7 hPa 0,0 l/m 0 min 0 min 0,0 UV-I 0 W/m 7,7 km/h (2 Bft)
22.02.2014 00:48 4,0 C 2,2 C 87 % 1009,7 hPa 0,0 l/m 0 min 0 min 0,0 UV-I 0 W/m 2,6 km/h (1 Bft)
22.02.2014 00:50 4,0 C 2,2 C 87 % 1009,7 hPa 0,0 l/m 0 min 0 min 0,0 UV-I 0 W/m 5,1 km/h (1 Bft)
22.02.2014 00:52 4,1 C 2,2 C 87 % 1009,6 hPa 0,0 l/m 0 min 0 min 0,0 UV-I 0 W/m 2,6 km/h (1 Bft)
22.02.2014 00:54 4,1 C 2,2 C 87 % 1009,7 hPa 0,0 l/m 0 min 0 min 0,0 UV-I 0 W/m 10,3 km/h (2 Bft)
22.02.2014 00:56 4,1 C 2,2 C 87 % 1009,7 hPa 0,0 l/m 0 min 0 min 0,0 UV-I 0 W/m 12,9 km/h (3 Bft)
22.02.2014 00:58 4,1 C 2,8 C 87 % 1009,7 hPa 0,0 l/m 0 min 0 min 0,0 UV-I 0 W/m 10,3 km/h (2 Bft)
22.02.2014 01:00 4,1 C 2,2 C 87 % 1009,7 hPa 0,0 l/m 0 min 0 min 0,0 UV-I 0 W/m 0,0 km/h (0 Bft)
22.02.2014 01:02 4,1 C 2,8 C 87 % 1009,6 hPa 0,0 l/m 0 min 0 min 0,0 UV-I 0 W/m 18,0 km/h (3 Bft)
22.02.2014 01:04 4,2 C 2,8 C 87 % 1009,5 hPa 0,0 l/m 0 min 0 min 0,0 UV-I 0 W/m 12,9 km/h (3 Bft)
22.02.2014 01:06 4,2 C 2,8 C 87 % 1009,5 hPa 0,0 l/m 0 min 0 min 0,0 UV-I 0 W/m 15,4 km/h (3 Bft)
22.02.2014 01:08 4,2 C 2,8 C 87 % 1009,6 hPa 0,0 l/m 0 min 0 min 0,0 UV-I 0 W/m 7,7 km/h (2 Bft)
22.02.2014 01:10 4,3 C 2,8 C 87 % 1009,5 hPa 0,0 l/m 0 min 0 min 0,0 UV-I 0 W/m 5,1 km/h (1 Bft)
22.02.2014 01:12 4,3 C 2,8 C 86 % 1009,5 hPa 0,0 l/m 0 min 0 min 0,0 UV-I 0 W/m 7,7 km/h (2 Bft)
22.02.2014 01:14 4,3 C 2,8 C 86 % 1009,5 hPa 0,0 l/m 0 min 0 min 0,0 UV-I 0 W/m 12,9 km/h (3 Bft)
22.02.2014 01:16 4,3 C 2,8 C 86 % 1009,7 hPa 0,0 l/m 0 min 0 min 0,0 UV-I 0 W/m 12,9 km/h (3 Bft)
22.02.2014 01:18 4,3 C 2,8 C 86 % 1009,6 hPa 0,0 l/m 0 min 0 min 0,0 UV-I 0 W/m 2,6 km/h (1 Bft)
22.02.2014 01:20 4,3 C 2,8 C 86 % 1009,5 hPa 0,0 l/m 0 min 0 min 0,0 UV-I 0 W/m 15,4 km/h (3 Bft)
22.02.2014 01:22 4,3 C 2,8 C 86 % 1009,6 hPa 0,0 l/m 0 min 0 min 0,0 UV-I 0 W/m 0,0 km/h (0 Bft)
22.02.2014 01:24 4,3 C 2,8 C 86 % 1009,6 hPa 0,0 l/m 0 min 0 min 0,0 UV-I 0 W/m 10,3 km/h (2 Bft)
22.02.2014 01:26 4,3 C 2,8 C 86 % 1009,7 hPa 0,0 l/m 0 min 0 min 0,0 UV-I 0 W/m 10,3 km/h (2 Bft)
22.02.2014 01:28 4,3 C 2,8 C 86 % 1009,7 hPa 0,0 l/m 0 min 0 min 0,0 UV-I 0 W/m 10,3 km/h (2 Bft)
22.02.2014 01:30 4,3 C 2,8 C 86 % 1009,7 hPa 0,0 l/m 0 min 0 min 0,0 UV-I 0 W/m 5,1 km/h (1 Bft)
22.02.2014 01:32 4,3 C 2,8 C 85 % 1009,7 hPa 0,0 l/m 0 min 0 min 0,0 UV-I 0 W/m 0,0 km/h (0 Bft)
22.02.2014 01:34 4,3 C 2,8 C 85 % 1009,7 hPa 0,0 l/m 0 min 0 min 0,0 UV-I 0 W/m 7,7 km/h (2 Bft)
22.02.2014 01:36 4,3 C 2,8 C 85 % 1009,7 hPa 0,0 l/m 0 min 0 min 0,0 UV-I 0 W/m 12,9 km/h (3 Bft)
22.02.2014 01:38 4,3 C 2,8 C 85 % 1009,7 hPa 0,0 l/m 0 min 0 min 0,0 UV-I 0 W/m 7,7 km/h (2 Bft)
22.02.2014 01:40 4,4 C 2,8 C 85 % 1009,7 hPa 0,0 l/m 0 min 0 min 0,0 UV-I 0 W/m 7,7 km/h (2 Bft)
22.02.2014 01:42 4,3 C 2,8 C 85 % 1009,7 hPa 0,0 l/m 0 min 0 min 0,0 UV-I 0 W/m 5,1 km/h (1 Bft)
22.02.2014 01:44 4,3 C 2,8 C 85 % 1009,7 hPa 0,0 l/m 0 min 0 min 0,0 UV-I 0 W/m 0,0 km/h (0 Bft)
22.02.2014 01:46 4,3 C 2,2 C 85 % 1009,7 hPa 0,0 l/m 0 min 0 min 0,0 UV-I 0 W/m 5,1 km/h (1 Bft)
22.02.2014 01:48 4,2 C 2,2 C 85 % 1009,7 hPa 0,0 l/m 0 min 0 min 0,0 UV-I 0 W/m 0,0 km/h (0 Bft)
22.02.2014 01:50 4,2 C 2,2 C 85 % 1009,7 hPa 0,0 l/m 0 min 0 min 0,0 UV-I 0 W/m 7,7 km/h (2 Bft)
22.02.2014 01:52 4,2 C 2,2 C 85 % 1009,6 hPa 0,0 l/m 0 min 0 min 0,0 UV-I 0 W/m 0,0 km/h (0 Bft)
22.02.2014 01:54 4,2 C 2,2 C 85 % 1009,7 hPa 0,0 l/m 0 min 0 min 0,0 UV-I 0 W/m 0,0 km/h (0 Bft)
22.02.2014 01:56 4,2 C 2,2 C 85 % 1009,7 hPa 0,0 l/m 0 min 0 min 0,0 UV-I 0 W/m 0,0 km/h (0 Bft)
22.02.2014 01:58 4,1 C 2,2 C 86 % 1009,7 hPa 0,0 l/m 0 min 0 min 0,0 UV-I 0 W/m 7,7 km/h (2 Bft)
22.02.2014 02:00 4,1 C 2,2 C 86 % 1009,7 hPa 0,0 l/m 0 min 0 min 0,0 UV-I 0 W/m 7,7 km/h (2 Bft)
22.02.2014 02:02 4,2 C 2,2 C 86 % 1009,7 hPa 0,0 l/m 0 min 0 min 0,0 UV-I 0 W/m 5,1 km/h (1 Bft)
22.02.2014 02:04 4,2 C 2,2 C 86 % 1009,7 hPa 0,0 l/m 0 min 0 min 0,0 UV-I 0 W/m 5,1 km/h (1 Bft)
22.02.2014 02:06 4,2 C 2,8 C 86 % 1009,6 hPa 0,0 l/m 0 min 0 min 0,0 UV-I 0 W/m 10,3 km/h (2 Bft)
22.02.2014 02:08 4,2 C 2,8 C 85 % 1009,6 hPa 0,0 l/m 0 min 0 min 0,0 UV-I 0 W/m 10,3 km/h (2 Bft)
22.02.2014 02:10 4,2 C 2,2 C 85 % 1009,7 hPa 0,0 l/m 0 min 0 min 0,0 UV-I 0 W/m 7,7 km/h (2 Bft)
22.02.2014 02:12 4,2 C 2,8 C 85 % 1009,6 hPa 0,0 l/m 0 min 0 min 0,0 UV-I 0 W/m 0,0 km/h (0 Bft)
22.02.2014 02:14 4,2 C 2,8 C 85 % 1009,6 hPa 0,0 l/m 0 min 0 min 0,0 UV-I 0 W/m 7,7 km/h (2 Bft)
22.02.2014 02:16 4,3 C 2,8 C 85 % 1009,5 hPa 0,0 l/m 0 min 0 min 0,0 UV-I 0 W/m 15,4 km/h (3 Bft)
22.02.2014 02:18 4,3 C 2,8 C 85 % 1009,5 hPa 0,0 l/m 0 min 0 min 0,0 UV-I 0 W/m 10,3 km/h (2 Bft)
22.02.2014 02:20 4,3 C 2,8 C 85 % 1009,5 hPa 0,0 l/m 0 min 0 min 0,0 UV-I 0 W/m 5,1 km/h (1 Bft)
22.02.2014 02:22 4,3 C 2,8 C 85 % 1009,5 hPa 0,0 l/m 0 min 0 min 0,0 UV-I 0 W/m 2,6 km/h (1 Bft)
22.02.2014 02:24 4,3 C 2,8 C 85 % 1009,5 hPa 0,0 l/m 0 min 0 min 0,0 UV-I 0 W/m 7,7 km/h (2 Bft)
22.02.2014 02:26 4,3 C 2,8 C 85 % 1009,4 hPa 0,0 l/m 0 min 0 min 0,0 UV-I 0 W/m 10,3 km/h (2 Bft)
22.02.2014 02:28 4,3 C 2,8 C 85 % 1009,5 hPa 0,0 l/m 0 min 0 min 0,0 UV-I 0 W/m 12,9 km/h (3 Bft)
22.02.2014 02:30 4,3 C 2,8 C 85 % 1009,5 hPa 0,0 l/m 0 min 0 min 0,0 UV-I 0 W/m 7,7 km/h (2 Bft)
22.02.2014 02:32 4,3 C 2,8 C 85 % 1009,5 hPa 0,0 l/m 0 min 0 min 0,0 UV-I 0 W/m 7,7 km/h (2 Bft)
22.02.2014 02:34 4,3 C 2,8 C 85 % 1009,5 hPa 0,0 l/m 0 min 0 min 0,0 UV-I 0 W/m 0,0 km/h (0 Bft)
22.02.2014 02:36 4,3 C 2,8 C 85 % 1009,5 hPa 0,0 l/m 0 min 0 min 0,0 UV-I 0 W/m 10,3 km/h (2 Bft)
22.02.2014 02:38 4,3 C 2,8 C 85 % 1009,6 hPa 0,0 l/m 0 min 0 min 0,0 UV-I 0 W/m 12,9 km/h (3 Bft)
22.02.2014 02:40 4,3 C 2,8 C 85 % 1009,6 hPa 0,0 l/m 0 min 0 min 0,0 UV-I 0 W/m 12,9 km/h (3 Bft)
22.02.2014 02:42 4,4 C 2,8 C 85 % 1009,5 hPa 0,0 l/m 0 min 0 min 0,0 UV-I 0 W/m 7,7 km/h (2 Bft)
22.02.2014 02:44 4,4 C 2,8 C 85 % 1009,5 hPa 0,0 l/m 0 min 0 min 0,0 UV-I 0 W/m 0,0 km/h (0 Bft)
22.02.2014 02:46 4,4 C 2,8 C 85 % 1009,5 hPa 0,0 l/m 0 min 0 min 0,0 UV-I 0 W/m 5,1 km/h (1 Bft)
22.02.2014 02:48 4,4 C 2,8 C 85 % 1009,5 hPa 0,0 l/m 0 min 0 min 0,0 UV-I 0 W/m 10,3 km/h (2 Bft)
22.02.2014 02:50 4,4 C 2,8 C 85 % 1009,5 hPa 0,0 l/m 0 min 0 min 0,0 UV-I 0 W/m 0,0 km/h (0 Bft)
22.02.2014 02:52 4,3 C 2,8 C 85 % 1009,5 hPa 0,0 l/m 0 min 0 min 0,0 UV-I 0 W/m 7,7 km/h (2 Bft)
22.02.2014 02:54 4,3 C 2,8 C 85 % 1009,5 hPa 0,0 l/m 0 min 0 min 0,0 UV-I 0 W/m 2,6 km/h (1 Bft)
22.02.2014 02:56 4,3 C 2,8 C 85 % 1009,5 hPa 0,0 l/m 0 min 0 min 0,0 UV-I 0 W/m 10,3 km/h (2 Bft)
22.02.2014 02:58 4,2 C 2,8 C 85 % 1009,5 hPa 0,0 l/m 0 min 0 min 0,0 UV-I 0 W/m 12,9 km/h (3 Bft)
22.02.2014 03:00 4,2 C 2,2 C 85 % 1009,5 hPa 0,0 l/m 0 min 0 min 0,0 UV-I 0 W/m 2,6 km/h (1 Bft)
22.02.2014 03:02 4,2 C 2,8 C 85 % 1009,5 hPa 0,0 l/m 0 min 0 min 0,0 UV-I 0 W/m 7,7 km/h (2 Bft)
22.02.2014 03:04 4,2 C 2,2 C 85 % 1009,4 hPa 0,0 l/m 0 min 0 min 0,0 UV-I 0 W/m 0,0 km/h (0 Bft)
22.02.2014 03:06 4,2 C 2,2 C 85 % 1009,5 hPa 0,0 l/m 0 min 0 min 0,0 UV-I 0 W/m 2,6 km/h (1 Bft)
22.02.2014 03:08 4,2 C 2,2 C 85 % 1009,5 hPa 0,0 l/m 0 min 0 min 0,0 UV-I 0 W/m 5,1 km/h (1 Bft)
22.02.2014 03:10 4,1 C 2,2 C 86 % 1009,5 hPa 0,0 l/m 0 min 0 min 0,0 UV-I 0 W/m 0,0 km/h (0 Bft)
22.02.2014 03:12 4,1 C 2,2 C 86 % 1009,5 hPa 0,0 l/m 0 min 0 min 0,0 UV-I 0 W/m 0,0 km/h (0 Bft)
22.02.2014 03:14 4,1 C 2,2 C 86 % 1009,5 hPa 0,0 l/m 0 min 0 min 0,0 UV-I 0 W/m 2,6 km/h (1 Bft)
22.02.2014 03:16 4,1 C 2,2 C 86 % 1009,5 hPa 0,0 l/m 0 min 0 min 0,0 UV-I 0 W/m 10,3 km/h (2 Bft)
22.02.2014 03:18 4,1 C 2,2 C 86 % 1009,5 hPa 0,0 l/m 0 min 0 min 0,0 UV-I 0 W/m 2,6 km/h (1 Bft)
22.02.2014 03:20 4,1 C 2,2 C 86 % 1009,5 hPa 0,0 l/m 0 min 0 min 0,0 UV-I 0 W/m 2,6 km/h (1 Bft)
22.02.2014 03:22 4,1 C 2,2 C 86 % 1009,4 hPa 0,0 l/m 0 min 0 min 0,0 UV-I 0 W/m 7,7 km/h (2 Bft)
22.02.2014 03:24 4,1 C 2,2 C 86 % 1009,4 hPa 0,0 l/m 0 min 0 min 0,0 UV-I 0 W/m 7,7 km/h (2 Bft)
22.02.2014 03:26 4,1 C 2,2 C 86 % 1009,4 hPa 0,0 l/m 0 min 0 min 0,0 UV-I 0 W/m 5,1 km/h (1 Bft)
22.02.2014 03:28 4,0 C 2,2 C 86 % 1009,5 hPa 0,0 l/m 0 min 0 min 0,0 UV-I 0 W/m 2,6 km/h (1 Bft)
22.02.2014 03:30 4,0 C 2,2 C 86 % 1009,4 hPa 0,0 l/m 0 min 0 min 0,0 UV-I 0 W/m 10,3 km/h (2 Bft)
22.02.2014 03:32 4,0 C 2,2 C 86 % 1009,4 hPa 0,0 l/m 0 min 0 min 0,0 UV-I 0 W/m 7,7 km/h (2 Bft)
22.02.2014 03:34 4,0 C 2,2 C 86 % 1009,4 hPa 0,0 l/m 0 min 0 min 0,0 UV-I 0 W/m 0,0 km/h (0 Bft)
22.02.2014 03:36 4,0 C 2,2 C 86 % 1009,4 hPa 0,0 l/m 0 min 0 min 0,0 UV-I 0 W/m 2,6 km/h (1 Bft)
22.02.2014 03:38 4,0 C 2,2 C 86 % 1009,5 hPa 0,0 l/m 0 min 0 min 0,0 UV-I 0 W/m 18,0 km/h (3 Bft)
22.02.2014 03:40 4,0 C 2,8 C 86 % 1009,4 hPa 0,0 l/m 0 min 0 min 0,0 UV-I 0 W/m 5,1 km/h (1 Bft)
22.02.2014 03:42 4,0 C 2,8 C 86 % 1009,4 hPa 0,0 l/m 0 min 0 min 0,0 UV-I 0 W/m 7,7 km/h (2 Bft)
22.02.2014 03:44 4,1 C 2,8 C 86 % 1009,5 hPa 0,0 l/m 0 min 0 min 0,0 UV-I 0 W/m 12,9 km/h (3 Bft)
22.02.2014 03:46 4,1 C 2,8 C 86 % 1009,4 hPa 0,0 l/m 0 min 0 min 0,0 UV-I 0 W/m 12,9 km/h (3 Bft)
22.02.2014 03:48 4,1 C 2,8 C 86 % 1009,4 hPa 0,0 l/m 0 min 0 min 0,0 UV-I 0 W/m 10,3 km/h (2 Bft)
22.02.2014 03:50 4,1 C 2,8 C 86 % 1009,4 hPa 0,0 l/m 0 min 0 min 0,0 UV-I 0 W/m 15,4 km/h (3 Bft)
22.02.2014 03:52 4,1 C 2,8 C 86 % 1009,4 hPa 0,0 l/m 0 min 0 min 0,0 UV-I 0 W/m 20,6 km/h (4 Bft)
22.02.2014 03:54 4,2 C 2,8 C 91 % 1009,4 hPa 0,0 l/m 0 min 0 min 0,0 UV-I 0 W/m 15,4 km/h (3 Bft)
22.02.2014 03:56 4,2 C 2,8 C 86 % 1009,4 hPa 0,0 l/m 0 min 0 min 0,0 UV-I 0 W/m 15,4 km/h (3 Bft)
22.02.2014 03:58 4,2 C 2,8 C 86 % 1009,3 hPa 0,0 l/m 0 min 0 min 0,0 UV-I 0 W/m 12,9 km/h (3 Bft)
22.02.2014 04:00 4,2 C 2,8 C 86 % 1009,4 hPa 0,0 l/m 0 min 0 min 0,0 UV-I 0 W/m 15,4 km/h (3 Bft)
22.02.2014 04:02 4,2 C 2,8 C 86 % 1009,4 hPa 0,0 l/m 0 min 0 min 0,0 UV-I 0 W/m 12,9 km/h (3 Bft)
22.02.2014 04:04 4,2 C 2,8 C 86 % 1009,4 hPa 0,0 l/m 0 min 0 min 0,0 UV-I 0 W/m 15,4 km/h (3 Bft)
22.02.2014 04:06 4,2 C 2,8 C 86 % 1009,4 hPa 0,0 l/m 0 min 0 min 0,0 UV-I 0 W/m 15,4 km/h (3 Bft)
22.02.2014 04:08 4,2 C 2,8 C 86 % 1009,3 hPa 0,0 l/m 0 min 0 min 0,0 UV-I 0 W/m 18,0 km/h (3 Bft)
22.02.2014 04:10 4,2 C 2,8 C 86 % 1009,4 hPa 0,0 l/m 0 min 0 min 0,0 UV-I 0 W/m 18,0 km/h (3 Bft)
22.02.2014 04:12 4,2 C 2,8 C 86 % 1009,4 hPa 0,0 l/m 0 min 0 min 0,0 UV-I 0 W/m 12,9 km/h (3 Bft)
22.02.2014 04:14 4,3 C 2,8 C 86 % 1009,3 hPa 0,0 l/m 0 min 0 min 0,0 UV-I 0 W/m 18,0 km/h (3 Bft)
22.02.2014 04:16 4,3 C 2,8 C 85 % 1009,2 hPa 0,0 l/m 0 min 0 min 0,0 UV-I 0 W/m 7,7 km/h (2 Bft)
22.02.2014 04:18 4,2 C 2,8 C 85 % 1009,3 hPa 0,0 l/m 0 min 0 min 0,0 UV-I 0 W/m 23,2 km/h (4 Bft)
22.02.2014 04:20 4,3 C 2,8 C 85 % 1009,3 hPa 0,0 l/m 0 min 0 min 0,0 UV-I 0 W/m 18,0 km/h (3 Bft)
22.02.2014 04:22 4,3 C 2,8 C 85 % 1009,2 hPa 0,0 l/m 0 min 0 min 0,0 UV-I 0 W/m 15,4 km/h (3 Bft)
22.02.2014 04:24 4,3 C 2,8 C 85 % 1009,2 hPa 0,0 l/m 0 min 0 min 0,0 UV-I 0 W/m 10,3 km/h (2 Bft)
22.02.2014 04:26 4,3 C 2,8 C 85 % 1009,2 hPa 0,0 l/m 0 min 0 min 0,0 UV-I 0 W/m 10,3 km/h (2 Bft)
22.02.2014 04:28 4,2 C 2,8 C 85 % 1009,2 hPa 0,0 l/m 0 min 0 min 0,0 UV-I 0 W/m 18,0 km/h (3 Bft)
22.02.2014 04:30 4,3 C 2,8 C 85 % 1009,2 hPa 0,0 l/m 0 min 0 min 0,0 UV-I 0 W/m 18,0 km/h (3 Bft)
22.02.2014 04:32 4,3 C 2,8 C 85 % 1009,2 hPa 0,0 l/m 0 min 0 min 0,0 UV-I 0 W/m 15,4 km/h (3 Bft)
22.02.2014 04:34 4,3 C 2,8 C 85 % 1009,2 hPa 0,0 l/m 0 min 0 min 0,0 UV-I 0 W/m 12,9 km/h (3 Bft)
22.02.2014 04:36 4,3 C 2,8 C 85 % 1009,2 hPa 0,0 l/m 0 min 0 min 0,0 UV-I 0 W/m 12,9 km/h (3 Bft)
22.02.2014 04:38 4,3 C 2,8 C 85 % 1009,2 hPa 0,0 l/m 0 min 0 min 0,0 UV-I 0 W/m 12,9 km/h (3 Bft)
22.02.2014 04:40 4,3 C 2,8 C 85 % 1009,2 hPa 0,0 l/m 0 min 0 min 0,0 UV-I 0 W/m 5,1 km/h (1 Bft)
22.02.2014 04:42 4,2 C 2,8 C 85 % 1009,2 hPa 0,0 l/m 0 min 0 min 0,0 UV-I 0 W/m 10,3 km/h (2 Bft)
22.02.2014 04:44 4,2 C 2,8 C 85 % 1009,3 hPa 0,0 l/m 0 min 0 min 0,0 UV-I 0 W/m 18,0 km/h (3 Bft)
22.02.2014 04:46 4,2 C 2,8 C 85 % 1009,3 hPa 0,0 l/m 0 min 0 min 0,0 UV-I 0 W/m 18,0 km/h (3 Bft)
22.02.2014 04:48 4,2 C 2,8 C 85 % 1009,3 hPa 0,0 l/m 0 min 0 min 0,0 UV-I 0 W/m 5,1 km/h (1 Bft)
22.02.2014 04:50 4,2 C 2,8 C 85 % 1009,3 hPa 0,0 l/m 0 min 0 min 0,0 UV-I 0 W/m 18,0 km/h (3 Bft)
22.02.2014 04:52 4,2 C 2,8 C 85 % 1009,4 hPa 0,0 l/m 0 min 0 min 0,0 UV-I 0 W/m 15,4 km/h (3 Bft)
22.02.2014 04:54 4,2 C 2,8 C 85 % 1009,4 hPa 0,0 l/m 0 min 0 min 0,0 UV-I 0 W/m 15,4 km/h (3 Bft)
22.02.2014 04:56 4,2 C 2,8 C 85 % 1009,3 hPa 0,0 l/m 0 min 0 min 0,0 UV-I 0 W/m 12,9 km/h (3 Bft)
22.02.2014 04:58 4,2 C 2,8 C 86 % 1009,4 hPa 0,0 l/m 0 min 0 min 0,0 UV-I 0 W/m 15,4 km/h (3 Bft)
22.02.2014 05:00 4,2 C 2,8 C 86 % 1009,4 hPa 0,0 l/m 0 min 0 min 0,0 UV-I 0 W/m 18,0 km/h (3 Bft)
22.02.2014 05:02 4,2 C 2,8 C 86 % 1009,4 hPa 0,0 l/m 0 min 0 min 0,0 UV-I 0 W/m 18,0 km/h (3 Bft)
22.02.2014 05:04 4,2 C 2,8 C 86 % 1009,4 hPa 0,0 l/m 0 min 0 min 0,0 UV-I 0 W/m 12,9 km/h (3 Bft)
22.02.2014 05:06 4,2 C 2,8 C 86 % 1009,5 hPa 0,0 l/m 0 min 0 min 0,0 UV-I 0 W/m 15,4 km/h (3 Bft)
22.02.2014 05:08 4,2 C 2,8 C 86 % 1009,5 hPa 0,0 l/m 0 min 0 min 0,0 UV-I 0 W/m 15,4 km/h (3 Bft)
22.02.2014 05:10 4,2 C 2,8 C 86 % 1009,4 hPa 0,0 l/m 0 min 0 min 0,0 UV-I 0 W/m 10,3 km/h (2 Bft)
22.02.2014 05:12 4,2 C 2,8 C 86 % 1009,5 hPa 0,0 l/m 0 min 0 min 0,0 UV-I 0 W/m 20,6 km/h (4 Bft)
22.02.2014 05:14 4,2 C 2,8 C 86 % 1009,5 hPa 0,0 l/m 0 min 0 min 0,0 UV-I 0 W/m 20,6 km/h (4 Bft)
22.02.2014 05:16 4,2 C 2,8 C 86 % 1009,5 hPa 0,0 l/m 0 min 0 min 0,0 UV-I 0 W/m 15,4 km/h (3 Bft)
22.02.2014 05:18 4,2 C 2,8 C 86 % 1009,5 hPa 0,0 l/m 0 min 0 min 0,0 UV-I 0 W/m 7,7 km/h (2 Bft)
22.02.2014 05:20 4,2 C 2,8 C 86 % 1009,5 hPa 0,0 l/m 0 min 0 min 0,0 UV-I 0 W/m 15,4 km/h (3 Bft)
22.02.2014 05:22 4,2 C 2,8 C 86 % 1009,5 hPa 0,0 l/m 0 min 0 min 0,0 UV-I 0 W/m 18,0 km/h (3 Bft)
22.02.2014 05:24 4,2 C 2,8 C 86 % 1009,5 hPa 0,0 l/m 0 min 0 min 0,0 UV-I 0 W/m 5,1 km/h (1 Bft)
22.02.2014 05:26 4,2 C 2,8 C 86 % 1009,4 hPa 0,0 l/m 0 min 0 min 0,0 UV-I 0 W/m 15,4 km/h (3 Bft)
22.02.2014 05:28 4,2 C 2,8 C 86 % 1009,4 hPa 0,0 l/m 0 min 0 min 0,0 UV-I 0 W/m 18,0 km/h (3 Bft)
22.02.2014 05:30 4,2 C 2,8 C 86 % 1009,4 hPa 0,0 l/m 0 min 0 min 0,0 UV-I 0 W/m 15,4 km/h (3 Bft)
22.02.2014 05:32 4,2 C 2,8 C 86 % 1009,4 hPa 0,0 l/m 0 min 0 min 0,0 UV-I 0 W/m 15,4 km/h (3 Bft)
22.02.2014 05:34 4,2 C 2,8 C 86 % 1009,4 hPa 0,0 l/m 0 min 0 min 0,0 UV-I 0 W/m 12,9 km/h (3 Bft)
22.02.2014 05:36 4,2 C 2,8 C 86 % 1009,5 hPa 0,0 l/m 0 min 0 min 0,0 UV-I 0 W/m 15,4 km/h (3 Bft)
22.02.2014 05:38 4,2 C 2,8 C 86 % 1009,4 hPa 0,0 l/m 0 min 0 min 0,0 UV-I 0 W/m 10,3 km/h (2 Bft)
22.02.2014 05:40 4,2 C 2,8 C 86 % 1009,4 hPa 0,0 l/m 0 min 0 min 0,0 UV-I 0 W/m 10,3 km/h (2 Bft)
22.02.2014 05:42 4,2 C 2,8 C 86 % 1009,4 hPa 0,0 l/m 0 min 0 min 0,0 UV-I 0 W/m 7,7 km/h (2 Bft)
22.02.2014 05:44 4,2 C 2,8 C 86 % 1009,4 hPa 0,0 l/m 0 min 0 min 0,0 UV-I 0 W/m 7,7 km/h (2 Bft)
22.02.2014 05:46 4,2 C 2,8 C 86 % 1009,5 hPa 0,0 l/m 0 min 0 min 0,0 UV-I 0 W/m 7,7 km/h (2 Bft)
22.02.2014 05:48 4,2 C 2,8 C 86 % 1009,5 hPa 0,0 l/m 0 min 0 min 0,0 UV-I 0 W/m 12,9 km/h (3 Bft)
22.02.2014 05:50 4,2 C 2,8 C 86 % 1009,4 hPa 0,0 l/m 0 min 0 min 0,0 UV-I 0 W/m 10,3 km/h (2 Bft)
22.02.2014 05:52 4,2 C 2,8 C 86 % 1009,5 hPa 0,0 l/m 0 min 0 min 0,0 UV-I 0 W/m 12,9 km/h (3 Bft)
22.02.2014 05:54 4,2 C 2,8 C 86 % 1009,5 hPa 0,0 l/m 0 min 0 min 0,0 UV-I 0 W/m 7,7 km/h (2 Bft)
22.02.2014 05:56 4,2 C 2,8 C 86 % 1009,5 hPa 0,0 l/m 0 min 0 min 0,0 UV-I 0 W/m 5,1 km/h (1 Bft)
22.02.2014 05:58 4,2 C 2,8 C 86 % 1009,5 hPa 0,0 l/m 0 min 0 min 0,0 UV-I 0 W/m 12,9 km/h (3 Bft)
22.02.2014 06:00 4,2 C 2,8 C 86 % 1009,6 hPa 0,0 l/m 0 min 0 min 0,0 UV-I 0 W/m 12,9 km/h (3 Bft)
22.02.2014 06:02 4,2 C 2,8 C 86 % 1009,6 hPa 0,0 l/m 0 min 0 min 0,0 UV-I 0 W/m 7,7 km/h (2 Bft)
22.02.2014 06:04 4,2 C 2,8 C 86 % 1009,7 hPa 0,0 l/m 0 min 0 min 0,0 UV-I 0 W/m 10,3 km/h (2 Bft)
22.02.2014 06:06 4,2 C 2,8 C 86 % 1009,7 hPa 0,0 l/m 0 min 0 min 0,0 UV-I 0 W/m 15,4 km/h (3 Bft)
22.02.2014 06:08 4,2 C 2,8 C 91 % 1009,7 hPa 0,0 l/m 0 min 0 min 0,0 UV-I 0 W/m 5,1 km/h (1 Bft)
22.02.2014 06:10 4,2 C 2,8 C 91 % 1009,4 hPa 0,0 l/m 0 min 0 min 0,0 UV-I 0 W/m 18,0 km/h (3 Bft)
22.02.2014 06:12 4,2 C 2,8 C 91 % 1009,5 hPa 0,0 l/m 0 min 0 min 0,0 UV-I 0 W/m 10,3 km/h (2 Bft)
22.02.2014 06:14 4,2 C 2,8 C 91 % 1009,4 hPa 0,0 l/m 0 min 0 min 0,0 UV-I 0 W/m 7,7 km/h (2 Bft)
22.02.2014 06:16 4,2 C 2,8 C 86 % 1009,4 hPa 0,0 l/m 0 min 0 min 0,0 UV-I 0 W/m 18,0 km/h (3 Bft)
22.02.2014 06:18 4,1 C 2,8 C 86 % 1009,4 hPa 0,0 l/m 0 min 0 min 0,0 UV-I 0 W/m 7,7 km/h (2 Bft)
22.02.2014 06:20 4,1 C 2,2 C 86 % 1009,4 hPa 0,0 l/m 0 min 0 min 0,0 UV-I 0 W/m 12,9 km/h (3 Bft)
22.02.2014 06:22 4,1 C 2,2 C 86 % 1009,4 hPa 0,0 l/m 0 min 0 min 0,0 UV-I 0 W/m 7,7 km/h (2 Bft)
22.02.2014 06:24 4,1 C 2,2 C 86 % 1009,4 hPa 0,0 l/m 0 min 0 min 0,0 UV-I 0 W/m 18,0 km/h (3 Bft)
22.02.2014 06:26 4,1 C 2,2 C 86 % 1009,4 hPa 0,0 l/m 0 min 0 min 0,0 UV-I 0 W/m 10,3 km/h (2 Bft)
22.02.2014 06:28 4,1 C 2,2 C 86 % 1009,5 hPa 0,0 l/m 0 min 0 min 0,0 UV-I 0 W/m 5,1 km/h (1 Bft)
22.02.2014 06:30 4,1 C 2,2 C 86 % 1009,6 hPa 0,0 l/m 0 min 0 min 0,0 UV-I 0 W/m 12,9 km/h (3 Bft)
22.02.2014 06:32 4,1 C 2,2 C 86 % 1009,5 hPa 0,0 l/m 0 min 0 min 0,0 UV-I 0 W/m 12,9 km/h (3 Bft)
22.02.2014 06:34 4,1 C 2,2 C 86 % 1009,5 hPa 0,0 l/m 0 min 0 min 0,0 UV-I 0 W/m 7,7 km/h (2 Bft)
22.02.2014 06:36 4,1 C 2,2 C 86 % 1009,5 hPa 0,0 l/m 0 min 0 min 0,0 UV-I 0 W/m 0,0 km/h (0 Bft)
22.02.2014 06:38 4,1 C 2,2 C 86 % 1009,5 hPa 0,0 l/m 0 min 0 min 0,0 UV-I 0 W/m 10,3 km/h (2 Bft)
22.02.2014 06:40 4,0 C 2,2 C 86 % 1009,5 hPa 0,0 l/m 0 min 0 min 0,0 UV-I 0 W/m 7,7 km/h (2 Bft)
22.02.2014 06:42 4,0 C 2,2 C 86 % 1009,5 hPa 0,0 l/m 0 min 0 min 0,0 UV-I 0 W/m 7,7 km/h (2 Bft)
22.02.2014 06:44 4,0 C 2,2 C 87 % 1009,5 hPa 0,0 l/m 0 min 0 min 0,0 UV-I 0 W/m 10,3 km/h (2 Bft)
22.02.2014 06:46 4,0 C 2,8 C 87 % 1009,4 hPa 0,0 l/m 0 min 0 min 0,0 UV-I 0 W/m 10,3 km/h (2 Bft)
22.02.2014 06:48 4,0 C 2,2 C 87 % 1009,5 hPa 0,0 l/m 0 min 0 min 0,0 UV-I 0 W/m 7,7 km/h (2 Bft)
22.02.2014 06:50 4,0 C 2,8 C 87 % 1009,4 hPa 0,0 l/m 0 min 0 min 0,0 UV-I 0 W/m 15,4 km/h (3 Bft)
22.02.2014 06:52 4,0 C 2,8 C 87 % 1009,4 hPa 0,0 l/m 0 min 0 min 0,0 UV-I 0 W/m 12,9 km/h (3 Bft)
22.02.2014 06:54 4,0 C 2,8 C 87 % 1009,5 hPa 0,0 l/m 0 min 0 min 0,0 UV-I 0 W/m 7,7 km/h (2 Bft)
22.02.2014 06:56 4,0 C 2,8 C 87 % 1009,6 hPa 0,0 l/m 0 min 0 min 0,0 UV-I 0 W/m 12,9 km/h (3 Bft)
22.02.2014 06:58 4,0 C 2,2 C 87 % 1009,5 hPa 0,0 l/m 0 min 0 min 0,0 UV-I 0 W/m 10,3 km/h (2 Bft)
22.02.2014 07:00 4,0 C 2,2 C 87 % 1009,7 hPa 0,0 l/m 0 min 0 min 0,0 UV-I 0 W/m 5,1 km/h (1 Bft)
22.02.2014 07:02 4,0 C 2,2 C 87 % 1009,7 hPa 0,0 l/m 0 min 0 min 0,0 UV-I 0 W/m 5,1 km/h (1 Bft)
22.02.2014 07:04 4,0 C 2,2 C 87 % 1009,7 hPa 0,0 l/m 0 min 0 min 0,0 UV-I 0 W/m 10,3 km/h (2 Bft)
22.02.2014 07:06 3,9 C 2,2 C 87 % 1009,6 hPa 0,0 l/m 0 min 0 min 0,0 UV-I 0 W/m 5,1 km/h (1 Bft)
22.02.2014 07:08 3,9 C 2,2 C 87 % 1009,6 hPa 0,0 l/m 0 min 0 min 0,0 UV-I 0 W/m 15,4 km/h (3 Bft)
22.02.2014 07:10 3,9 C 2,2 C 87 % 1009,7 hPa 0,0 l/m 0 min 0 min 0,0 UV-I 0 W/m 7,7 km/h (2 Bft)
22.02.2014 07:12 3,9 C 2,2 C 87 % 1009,8 hPa 0,0 l/m 0 min 0 min 0,0 UV-I 0 W/m 12,9 km/h (3 Bft)
22.02.2014 07:14 3,9 C 2,2 C 87 % 1009,6 hPa 0,0 l/m 0 min 0 min 0,0 UV-I 0 W/m 5,1 km/h (1 Bft)
22.02.2014 07:16 3,9 C 2,8 C 87 % 1009,8 hPa 0,0 l/m 0 min 0 min 0,0 UV-I 0 W/m 12,9 km/h (3 Bft)
22.02.2014 07:18 3,9 C 2,8 C 87 % 1009,7 hPa 0,0 l/m 0 min 0 min 0,0 UV-I 0 W/m 10,3 km/h (2 Bft)
22.02.2014 07:20 3,9 C 2,8 C 87 % 1009,6 hPa 0,0 l/m 0 min 0 min 0,0 UV-I 0 W/m 15,4 km/h (3 Bft)
22.02.2014 07:22 4,0 C 2,8 C 87 % 1009,6 hPa 0,0 l/m 0 min 0 min 0,0 UV-I 0 W/m 10,3 km/h (2 Bft)
22.02.2014 07:24 4,0 C 2,8 C 87 % 1009,7 hPa 0,0 l/m 0 min 0 min 0,0 UV-I 0 W/m 12,9 km/h (3 Bft)
22.02.2014 07:26 4,0 C 2,8 C 87 % 1009,7 hPa 0,0 l/m 0 min 0 min 0,0 UV-I 0 W/m 7,7 km/h (2 Bft)
22.02.2014 07:28 4,0 C 2,8 C 87 % 1009,7 hPa 0,0 l/m 0 min 0 min 0,0 UV-I 5 W/m 12,9 km/h (3 Bft)
22.02.2014 07:30 4,0 C 2,8 C 87 % 1009,7 hPa 0,0 l/m 0 min 0 min 0,0 UV-I 5 W/m 12,9 km/h (3 Bft)
22.02.2014 07:32 4,1 C 2,8 C 87 % 1009,8 hPa 0,0 l/m 0 min 0 min 0,0 UV-I 7 W/m 20,6 km/h (4 Bft)
22.02.2014 07:34 4,1 C 2,8 C 87 % 1009,8 hPa 0,0 l/m 0 min 0 min 0,0 UV-I 11 W/m 10,3 km/h (2 Bft)
22.02.2014 07:36 4,1 C 2,8 C 87 % 1009,9 hPa 0,0 l/m 0 min 0 min 0,0 UV-I 16 W/m 10,3 km/h (2 Bft)
22.02.2014 07:38 4,1 C 2,8 C 87 % 1009,8 hPa 0,0 l/m 0 min 0 min 0,0 UV-I 19 W/m 7,7 km/h (2 Bft)
22.02.2014 07:40 4,1 C 2,8 C 87 % 1009,9 hPa 0,0 l/m 0 min 0 min 0,0 UV-I 23 W/m 10,3 km/h (2 Bft)
22.02.2014 07:42 4,1 C 3,3 C 87 % 1009,9 hPa 0,0 l/m 0 min 0 min 0,0 UV-I 28 W/m 12,9 km/h (3 Bft)
22.02.2014 07:44 4,2 C 3,3 C 87 % 1009,9 hPa 0,0 l/m 0 min 0 min 0,0 UV-I 33 W/m 2,6 km/h (1 Bft)
22.02.2014 07:46 4,2 C 3,3 C 87 % 1009,9 hPa 0,0 l/m 2 min 0 min 0,0 UV-I 35 W/m 10,3 km/h (2 Bft)
22.02.2014 07:48 4,2 C 3,3 C 92 % 1010,0 hPa 0,0 l/m 2 min 0 min 0,0 UV-I 33 W/m 2,6 km/h (1 Bft)
22.02.2014 07:50 4,2 C 3,3 C 88 % 1010,0 hPa 0,0 l/m 2 min 0 min 0,0 UV-I 33 W/m 10,3 km/h (2 Bft)
22.02.2014 07:52 4,2 C 3,3 C 88 % 1010,1 hPa 0,0 l/m 2 min 2 min 0,0 UV-I 26 W/m 7,7 km/h (2 Bft)
22.02.2014 07:54 4,2 C 3,3 C 87 % 1010,1 hPa 0,0 l/m 0 min 2 min 0,0 UV-I 21 W/m 10,3 km/h (2 Bft)
22.02.2014 07:56 4,3 C 3,3 C 87 % 1010,0 hPa 0,0 l/m 0 min 2 min 0,0 UV-I 16 W/m 5,1 km/h (1 Bft)
22.02.2014 07:58 4,3 C 3,3 C 87 % 1010,1 hPa 0,0 l/m 0 min 2 min 0,0 UV-I 12 W/m 12,9 km/h (3 Bft)
22.02.2014 08:00 4,3 C 3,3 C 87 % 1010,1 hPa 0,0 l/m 0 min 2 min 0,0 UV-I 9 W/m 10,3 km/h (2 Bft)
22.02.2014 08:02 4,3 C 2,8 C 87 % 1010,1 hPa 0,0 l/m 0 min 2 min 0,0 UV-I 9 W/m 7,7 km/h (2 Bft)
22.02.2014 08:04 4,4 C 2,8 C 87 % 1010,1 hPa 0,0 l/m 0 min 2 min 0,0 UV-I 9 W/m 10,3 km/h (2 Bft)
22.02.2014 08:06 4,4 C 2,8 C 87 % 1010,1 hPa 0,0 l/m 0 min 2 min 0,0 UV-I 9 W/m 7,7 km/h (2 Bft)
22.02.2014 08:08 4,4 C 2,8 C 87 % 1010,1 hPa 0,0 l/m 0 min 2 min 0,0 UV-I 7 W/m 15,4 km/h (3 Bft)
22.02.2014 08:10 4,4 C 2,8 C 87 % 1010,2 hPa 0,0 l/m 0 min 2 min 0,0 UV-I 7 W/m 10,3 km/h (2 Bft)
22.02.2014 08:12 4,4 C 2,8 C 87 % 1010,1 hPa 0,0 l/m 0 min 2 min 0,0 UV-I 9 W/m 18,0 km/h (3 Bft)
22.02.2014 08:14 4,4 C 2,8 C 88 % 1010,2 hPa 0,0 l/m 0 min 2 min 0,0 UV-I 9 W/m 5,1 km/h (1 Bft)
22.02.2014 08:16 4,4 C 2,8 C 88 % 1010,2 hPa 0,0 l/m 0 min 2 min 0,0 UV-I 9 W/m 2,6 km/h (1 Bft)
22.02.2014 08:18 4,4 C 2,8 C 88 % 1010,2 hPa 0,0 l/m 0 min 0 min 0,0 UV-I 9 W/m 2,6 km/h (1 Bft)
22.02.2014 08:20 4,4 C 2,8 C 88 % 1010,2 hPa 0,0 l/m 0 min 0 min 0,0 UV-I 11 W/m 7,7 km/h (2 Bft)
22.02.2014 08:22 4,4 C 2,8 C 88 % 1010,2 hPa 0,0 l/m 0 min 0 min 0,0 UV-I 12 W/m 12,9 km/h (3 Bft)
22.02.2014 08:24 4,4 C 2,8 C 88 % 1010,3 hPa 0,0 l/m 0 min 0 min 0,0 UV-I 14 W/m 7,7 km/h (2 Bft)
22.02.2014 08:26 4,4 C 2,8 C 88 % 1010,2 hPa 0,0 l/m 0 min 0 min 0,0 UV-I 16 W/m 10,3 km/h (2 Bft)
22.02.2014 08:28 4,4 C 2,8 C 88 % 1010,3 hPa 0,0 l/m 0 min 0 min 0,0 UV-I 21 W/m 5,1 km/h (1 Bft)
22.02.2014 08:30 4,4 C 2,8 C 88 % 1010,3 hPa 0,0 l/m 0 min 0 min 0,0 UV-I 23 W/m 12,9 km/h (3 Bft)
22.02.2014 08:32 4,4 C 2,8 C 88 % 1010,3 hPa 0,0 l/m 0 min 0 min 0,0 UV-I 23 W/m 10,3 km/h (2 Bft)
22.02.2014 08:34 4,4 C 2,8 C 88 % 1010,4 hPa 0,0 l/m 0 min 0 min 0,0 UV-I 25 W/m 10,3 km/h (2 Bft)
22.02.2014 08:36 4,4 C 3,3 C 88 % 1010,5 hPa 0,0 l/m 0 min 0 min 0,0 UV-I 23 W/m 12,9 km/h (3 Bft)
22.02.2014 08:38 4,4 C 3,3 C 88 % 1010,6 hPa 0,0 l/m 0 min 0 min 0,0 UV-I 21 W/m 12,9 km/h (3 Bft)
22.02.2014 08:40 4,5 C 3,3 C 88 % 1010,6 hPa 0,0 l/m 0 min 0 min 0,0 UV-I 23 W/m 15,4 km/h (3 Bft)
22.02.2014 08:42 4,5 C 3,3 C 88 % 1010,6 hPa 0,0 l/m 0 min 0 min 0,0 UV-I 21 W/m 10,3 km/h (2 Bft)
22.02.2014 08:44 4,5 C 3,3 C 88 % 1010,5 hPa 0,0 l/m 0 min 0 min 0,0 UV-I 19 W/m 18,0 km/h (3 Bft)
22.02.2014 08:46 4,5 C 3,3 C 88 % 1010,5 hPa 0,0 l/m 0 min 2 min 0,0 UV-I 18 W/m 18,0 km/h (3 Bft)
22.02.2014 08:48 4,6 C 3,3 C 88 % 1010,6 hPa 0,0 l/m 0 min 2 min 0,0 UV-I 19 W/m 20,6 km/h (4 Bft)
22.02.2014 08:50 4,6 C 3,3 C 88 % 1010,6 hPa 0,0 l/m 0 min 2 min 0,0 UV-I 23 W/m 18,0 km/h (3 Bft)
22.02.2014 08:52 4,6 C 3,3 C 88 % 1010,6 hPa 0,2 l/m 0 min 2 min 0,0 UV-I 30 W/m 18,0 km/h (3 Bft)
22.02.2014 08:54 4,6 C 3,3 C 88 % 1010,6 hPa 0,0 l/m 0 min 2 min 0,0 UV-I 39 W/m 15,4 km/h (3 Bft)
22.02.2014 08:56 4,7 C 3,3 C 88 % 1010,5 hPa 0,0 l/m 0 min 2 min 0,0 UV-I 58 W/m 15,4 km/h (3 Bft)
22.02.2014 08:58 4,7 C 3,3 C 88 % 1010,7 hPa 0,0 l/m 0 min 0 min 0,0 UV-I 72 W/m 20,6 km/h (4 Bft)
22.02.2014 09:00 4,7 C 3,3 C 88 % 1010,7 hPa 0,0 l/m 0 min 0 min 0,0 UV-I 84 W/m 12,9 km/h (3 Bft)
22.02.2014 09:02 4,7 C 3,3 C 88 % 1010,6 hPa 0,0 l/m 0 min 0 min 0,0 UV-I 111 W/m 18,0 km/h (3 Bft)
22.02.2014 09:04 4,8 C 3,3 C 89 % 1010,7 hPa 0,0 l/m 2 min 0 min 0,0 UV-I 118 W/m 15,4 km/h (3 Bft)
22.02.2014 09:06 4,8 C 3,9 C 89 % 1010,7 hPa 0,0 l/m 2 min 0 min 0,0 UV-I 121 W/m 23,2 km/h (4 Bft)
22.02.2014 09:08 4,9 C 3,9 C 89 % 1010,8 hPa 0,0 l/m 0 min 0 min 0,0 UV-I 109 W/m 15,4 km/h (3 Bft)
22.02.2014 09:10 4,9 C 3,9 C 89 % 1010,8 hPa 0,0 l/m 0 min 2 min 0,0 UV-I 95 W/m 18,0 km/h (3 Bft)
22.02.2014 09:12 5,0 C 3,9 C 88 % 1010,8 hPa 0,0 l/m 0 min 2 min 0,0 UV-I 77 W/m 18,0 km/h (3 Bft)
22.02.2014 09:14 5,1 C 3,9 C 88 % 1010,8 hPa 0,0 l/m 0 min 2 min 0,0 UV-I 84 W/m 10,3 km/h (2 Bft)
22.02.2014 09:16 5,1 C 3,9 C 88 % 1010,8 hPa 0,0 l/m 0 min 0 min 0,0 UV-I 84 W/m 18,0 km/h (3 Bft)
22.02.2014 09:18 5,1 C 3,9 C 88 % 1010,8 hPa 0,0 l/m 0 min 0 min 0,0 UV-I 69 W/m 15,4 km/h (3 Bft)
22.02.2014 09:20 5,1 C 3,9 C 88 % 1010,8 hPa 0,0 l/m 0 min 2 min 0,0 UV-I 58 W/m 18,0 km/h (3 Bft)
22.02.2014 09:22 5,1 C 3,9 C 88 % 1010,8 hPa 0,0 l/m 0 min 2 min 0,0 UV-I 60 W/m 20,6 km/h (4 Bft)
22.02.2014 09:24 5,1 C 3,9 C 88 % 1010,9 hPa 0,0 l/m 0 min 0 min 0,0 UV-I 63 W/m 7,7 km/h (2 Bft)
22.02.2014 09:26 5,1 C 3,9 C 88 % 1010,9 hPa 0,0 l/m 0 min 2 min 0,0 UV-I 62 W/m 23,2 km/h (4 Bft)
22.02.2014 09:28 5,1 C 3,9 C 88 % 1011,0 hPa 0,0 l/m 0 min 2 min 0,0 UV-I 58 W/m 18,0 km/h (3 Bft)
22.02.2014 09:30 5,1 C 3,9 C 88 % 1011,0 hPa 0,0 l/m 0 min 0 min 0,0 UV-I 56 W/m 18,0 km/h (3 Bft)
22.02.2014 09:32 5,1 C 3,9 C 88 % 1011,1 hPa 0,0 l/m 0 min 2 min 0,0 UV-I 54 W/m 28,3 km/h (4 Bft)
22.02.2014 09:34 5,1 C 3,9 C 88 % 1011,1 hPa 0,0 l/m 0 min 2 min 0,0 UV-I 56 W/m 15,4 km/h (3 Bft)
22.02.2014 09:36 5,1 C 3,9 C 88 % 1011,1 hPa 0,0 l/m 0 min 0 min 0,0 UV-I 54 W/m 15,4 km/h (3 Bft)
22.02.2014 09:38 5,1 C 3,9 C 88 % 1011,1 hPa 0,0 l/m 0 min 2 min 0,0 UV-I 56 W/m 25,7 km/h (4 Bft)
22.02.2014 09:40 5,2 C 3,9 C 88 % 1011,1 hPa 0,0 l/m 0 min 2 min 0,0 UV-I 51 W/m 5,1 km/h (1 Bft)
22.02.2014 09:42 5,2 C 3,9 C 88 % 1011,2 hPa 0,0 l/m 0 min 2 min 0,0 UV-I 44 W/m 18,0 km/h (3 Bft)
22.02.2014 09:44 5,2 C 3,9 C 88 % 1011,2 hPa 0,0 l/m 0 min 0 min 0,0 UV-I 49 W/m 12,9 km/h (3 Bft)
22.02.2014 09:46 5,2 C 3,9 C 88 % 1011,2 hPa 0,0 l/m 0 min 0 min 0,0 UV-I 47 W/m 15,4 km/h (3 Bft)
22.02.2014 09:48 5,2 C 3,9 C 88 % 1011,3 hPa 0,0 l/m 0 min 0 min 0,0 UV-I 37 W/m 10,3 km/h (2 Bft)
22.02.2014 09:50 5,2 C 3,9 C 88 % 1011,4 hPa 0,0 l/m 0 min 2 min 0,0 UV-I 32 W/m 20,6 km/h (4 Bft)
22.02.2014 09:52 5,2 C 3,9 C 88 % 1011,3 hPa 0,0 l/m 0 min 0 min 0,0 UV-I 32 W/m 7,7 km/h (2 Bft)
22.02.2014 09:54 5,2 C 3,9 C 88 % 1011,4 hPa 0,0 l/m 0 min 0 min 0,0 UV-I 32 W/m 7,7 km/h (2 Bft)
22.02.2014 09:56 5,2 C 3,9 C 88 % 1011,3 hPa 0,0 l/m 0 min 0 min 0,0 UV-I 46 W/m 15,4 km/h (3 Bft)
22.02.2014 09:58 5,2 C 3,9 C 88 % 1011,4 hPa 0,0 l/m 0 min 2 min 0,0 UV-I 42 W/m 12,9 km/h (3 Bft)
22.02.2014 10:00 5,2 C 3,9 C 88 % 1011,4 hPa 0,0 l/m 0 min 2 min 0,0 UV-I 26 W/m 10,3 km/h (2 Bft)
22.02.2014 10:02 5,2 C 3,9 C 88 % 1011,5 hPa 0,0 l/m 0 min 2 min 0,0 UV-I 26 W/m 7,7 km/h (2 Bft)
22.02.2014 10:04 5,2 C 3,9 C 88 % 1011,5 hPa 0,0 l/m 0 min 0 min 0,0 UV-I 25 W/m 5,1 km/h (1 Bft)
22.02.2014 10:06 5,2 C 3,9 C 88 % 1011,5 hPa 0,0 l/m 0 min 2 min 0,0 UV-I 21 W/m 7,7 km/h (2 Bft)
22.02.2014 10:08 5,2 C 3,9 C 88 % 1011,5 hPa 0,0 l/m 0 min 2 min 0,0 UV-I 53 W/m 23,2 km/h (4 Bft)
22.02.2014 10:10 5,2 C 3,9 C 89 % 1011,5 hPa 0,0 l/m 0 min 0 min 0,0 UV-I 53 W/m 12,9 km/h (3 Bft)
22.02.2014 10:12 5,2 C 3,9 C 89 % 1011,5 hPa 0,0 l/m 0 min 0 min 0,0 UV-I 54 W/m 18,0 km/h (3 Bft)
22.02.2014 10:14 5,2 C 3,9 C 88 % 1011,6 hPa 0,0 l/m 0 min 2 min 0,0 UV-I 54 W/m 7,7 km/h (2 Bft)
22.02.2014 10:16 5,2 C 3,9 C 89 % 1011,6 hPa 0,0 l/m 0 min 0 min 0,0 UV-I 51 W/m 2,6 km/h (1 Bft)
22.02.2014 10:18 5,2 C 3,9 C 89 % 1011,6 hPa 0,0 l/m 0 min 0 min 0,0 UV-I 53 W/m 12,9 km/h (3 Bft)
22.02.2014 10:20 5,2 C 4,4 C 89 % 1011,6 hPa 0,0 l/m 0 min 0 min 0,0 UV-I 86 W/m 10,3 km/h (2 Bft)
22.02.2014 10:22 5,3 C 4,4 C 89 % 1011,6 hPa 0,0 l/m 0 min 0 min 0,0 UV-I 98 W/m 23,2 km/h (4 Bft)
22.02.2014 10:24 5,3 C 4,4 C 89 % 1011,7 hPa 0,0 l/m 0 min 0 min 0,0 UV-I 116 W/m 10,3 km/h (2 Bft)
22.02.2014 10:26 5,3 C 4,4 C 89 % 1011,7 hPa 0,0 l/m 0 min 0 min 0,0 UV-I 128 W/m 18,0 km/h (3 Bft)
22.02.2014 10:28 5,4 C 5,0 C 88 % 1011,8 hPa 0,0 l/m 0 min 0 min 0,0 UV-I 128 W/m 10,3 km/h (2 Bft)
22.02.2014 10:30 5,4 C 5,0 C 88 % 1011,8 hPa 0,0 l/m 0 min 0 min 0,0 UV-I 91 W/m 7,7 km/h (2 Bft)
22.02.2014 10:32 5,4 C 5,0 C 88 % 1011,8 hPa 0,0 l/m 0 min 0 min 0,0 UV-I 83 W/m 12,9 km/h (3 Bft)
22.02.2014 10:34 5,4 C 5,0 C 88 % 1011,8 hPa 0,0 l/m 0 min 0 min 0,0 UV-I 111 W/m 12,9 km/h (3 Bft)
22.02.2014 10:36 5,4 C 5,0 C 88 % 1011,8 hPa 0,0 l/m 0 min 0 min 0,0 UV-I 125 W/m 12,9 km/h (3 Bft)
22.02.2014 10:38 5,5 C 5,0 C 88 % 1011,8 hPa 0,0 l/m 0 min 0 min 0,0 UV-I 146 W/m 15,4 km/h (3 Bft)
22.02.2014 10:40 5,6 C 5,0 C 88 % 1011,8 hPa 0,0 l/m 0 min 0 min 0,0 UV-I 144 W/m 18,0 km/h (3 Bft)
22.02.2014 10:42 5,6 C 5,0 C 88 % 1011,7 hPa 0,0 l/m 0 min 0 min 0,0 UV-I 151 W/m 23,2 km/h (4 Bft)
22.02.2014 10:44 5,6 C 5,0 C 88 % 1011,8 hPa 0,0 l/m 0 min 0 min 0,0 UV-I 139 W/m 10,3 km/h (2 Bft)
22.02.2014 10:46 5,6 C 5,6 C 88 % 1011,8 hPa 0,0 l/m 0 min 0 min 0,0 UV-I 134 W/m 18,0 km/h (3 Bft)
22.02.2014 10:48 5,7 C 5,6 C 87 % 1011,8 hPa 0,0 l/m 0 min 0 min 0,0 UV-I 120 W/m 10,3 km/h (2 Bft)
22.02.2014 10:50 5,7 C 5,0 C 87 % 1011,8 hPa 0,0 l/m 0 min 0 min 0,0 UV-I 118 W/m 18,0 km/h (3 Bft)
22.02.2014 10:52 5,7 C 5,0 C 87 % 1011,8 hPa 0,0 l/m 0 min 0 min 0,0 UV-I 111 W/m 18,0 km/h (3 Bft)
22.02.2014 10:54 5,7 C 5,0 C 87 % 1011,9 hPa 0,0 l/m 0 min 0 min 0,0 UV-I 127 W/m 23,2 km/h (4 Bft)
22.02.2014 10:56 5,7 C 5,0 C 87 % 1011,8 hPa 0,0 l/m 0 min 0 min 0,0 UV-I 121 W/m 12,9 km/h (3 Bft)
22.02.2014 10:58 5,7 C 5,0 C 87 % 1011,8 hPa 0,0 l/m 0 min 0 min 0,0 UV-I 111 W/m 12,9 km/h (3 Bft)
22.02.2014 11:00 5,8 C 5,6 C 87 % 1011,9 hPa 0,0 l/m 0 min 0 min 0,0 UV-I 144 W/m 20,6 km/h (4 Bft)
22.02.2014 11:02 5,8 C 5,0 C 87 % 1011,9 hPa 0,0 l/m 0 min 0 min 0,0 UV-I 111 W/m 18,0 km/h (3 Bft)
22.02.2014 11:04 5,8 C 5,0 C 87 % 1011,9 hPa 0,0 l/m 0 min 0 min 0,0 UV-I 97 W/m 10,3 km/h (2 Bft)
22.02.2014 11:06 5,9 C 5,6 C 87 % 1012,0 hPa 0,0 l/m 0 min 0 min 0,0 UV-I 84 W/m 7,7 km/h (2 Bft)
22.02.2014 11:08 5,9 C 5,6 C 87 % 1012,0 hPa 0,0 l/m 0 min 0 min 0,0 UV-I 72 W/m 7,7 km/h (2 Bft)
22.02.2014 11:10 5,9 C 5,0 C 87 % 1012,1 hPa 0,0 l/m 0 min 0 min 0,0 UV-I 79 W/m 15,4 km/h (3 Bft)
22.02.2014 11:12 5,9 C 5,0 C 87 % 1012,1 hPa 0,0 l/m 0 min 0 min 0,0 UV-I 62 W/m 12,9 km/h (3 Bft)
22.02.2014 11:14 5,9 C 5,0 C 87 % 1012,1 hPa 0,0 l/m 0 min 0 min 0,0 UV-I 72 W/m 18,0 km/h (3 Bft)
22.02.2014 11:16 5,9 C 5,0 C 87 % 1012,1 hPa 0,0 l/m 0 min 0 min 0,0 UV-I 134 W/m 18,0 km/h (3 Bft)
22.02.2014 11:18 5,9 C 5,0 C 86 % 1012,1 hPa 0,0 l/m 0 min 0 min 0,0 UV-I 100 W/m 18,0 km/h (3 Bft)
22.02.2014 11:20 5,9 C 5,0 C 86 % 1012,2 hPa 0,0 l/m 0 min 0 min 0,0 UV-I 86 W/m 15,4 km/h (3 Bft)
22.02.2014 11:22 5,9 C 5,0 C 87 % 1012,2 hPa 0,0 l/m 0 min 0 min 0,0 UV-I 90 W/m 18,0 km/h (3 Bft)
22.02.2014 11:24 5,9 C 5,0 C 87 % 1012,2 hPa 0,0 l/m 0 min 0 min 0,0 UV-I 63 W/m 12,9 km/h (3 Bft)
22.02.2014 11:26 5,9 C 5,0 C 86 % 1012,2 hPa 0,0 l/m 0 min 0 min 0,0 UV-I 60 W/m 18,0 km/h (3 Bft)
22.02.2014 11:28 5,9 C 5,0 C 86 % 1012,2 hPa 0,0 l/m 0 min 0 min 0,0 UV-I 62 W/m 18,0 km/h (3 Bft)
22.02.2014 11:30 5,9 C 5,0 C 86 % 1012,3 hPa 0,0 l/m 0 min 0 min 0,0 UV-I 56 W/m 18,0 km/h (3 Bft)
22.02.2014 11:32 5,9 C 5,0 C 87 % 1012,3 hPa 0,0 l/m 0 min 0 min 0,0 UV-I 63 W/m 12,9 km/h (3 Bft)
22.02.2014 11:34 5,9 C 5,0 C 87 % 1012,4 hPa 0,0 l/m 0 min 0 min 0,0 UV-I 54 W/m 12,9 km/h (3 Bft)
22.02.2014 11:36 5,9 C 5,0 C 87 % 1012,3 hPa 0,0 l/m 0 min 0 min 0,0 UV-I 70 W/m 15,4 km/h (3 Bft)
22.02.2014 11:38 5,9 C 5,0 C 87 % 1012,3 hPa 0,0 l/m 0 min 0 min 0,0 UV-I 76 W/m 12,9 km/h (3 Bft)
22.02.2014 11:40 5,9 C 5,0 C 87 % 1012,3 hPa 0,0 l/m 0 min 0 min 0,0 UV-I 90 W/m 18,0 km/h (3 Bft)
22.02.2014 11:42 5,9 C 5,0 C 87 % 1012,4 hPa 0,0 l/m 0 min 0 min 0,0 UV-I 79 W/m 10,3 km/h (2 Bft)
22.02.2014 11:44 5,9 C 5,0 C 87 % 1012,5 hPa 0,0 l/m 0 min 0 min 0,0 UV-I 93 W/m 30,9 km/h (5 Bft)
22.02.2014 11:46 6,0 C 5,0 C 87 % 1012,5 hPa 0,0 l/m 0 min 0 min 0,0 UV-I 104 W/m 25,7 km/h (4 Bft)
22.02.2014 11:48 6,0 C 5,6 C 86 % 1012,5 hPa 0,0 l/m 0 min 0 min 0,0 UV-I 118 W/m 15,4 km/h (3 Bft)
22.02.2014 11:50 6,1 C 5,6 C 86 % 1012,6 hPa 0,0 l/m 0 min 0 min 0,0 UV-I 163 W/m 18,0 km/h (3 Bft)
22.02.2014 11:52 6,1 C 5,6 C 86 % 1012,6 hPa 0,0 l/m 0 min 0 min 0,0 UV-I 211 W/m 10,3 km/h (2 Bft)
22.02.2014 11:54 6,2 C 6,1 C 86 % 1012,5 hPa 0,0 l/m 0 min 0 min 0,0 UV-I 251 W/m 10,3 km/h (2 Bft)
22.02.2014 11:56 6,3 C 6,1 C 86 % 1012,5 hPa 0,0 l/m 0 min 0 min 0,0 UV-I 223 W/m 18,0 km/h (3 Bft)
22.02.2014 11:58 6,4 C 6,7 C 86 % 1012,5 hPa 0,0 l/m 0 min 0 min 0,0 UV-I 241 W/m 12,9 km/h (3 Bft)
22.02.2014 12:00 6,5 C 6,7 C 86 % 1012,5 hPa 0,0 l/m 0 min 0 min 0,0 UV-I 229 W/m 20,6 km/h (4 Bft)
22.02.2014 12:02 6,6 C 6,7 C 85 % 1012,5 hPa 0,0 l/m 0 min 0 min 0,0 UV-I 188 W/m 28,3 km/h (4 Bft)
22.02.2014 12:04 6,7 C 6,7 C 85 % 1012,5 hPa 0,0 l/m 0 min 0 min 0,0 UV-I 160 W/m 7,7 km/h (2 Bft)
22.02.2014 12:06 6,7 C 6,7 C 85 % 1012,5 hPa 0,0 l/m 0 min 0 min 0,0 UV-I 185 W/m 10,3 km/h (2 Bft)
22.02.2014 12:08 6,7 C 6,7 C 85 % 1012,6 hPa 0,0 l/m 0 min 0 min 0,0 UV-I 244 W/m 10,3 km/h (2 Bft)
22.02.2014 12:10 6,8 C 6,7 C 85 % 1012,5 hPa 0,0 l/m 0 min 0 min 0,0 UV-I 216 W/m 7,7 km/h (2 Bft)
22.02.2014 12:12 6,9 C 6,7 C 85 % 1012,5 hPa 0,0 l/m 0 min 0 min 0,0 UV-I 214 W/m 30,9 km/h (5 Bft)
22.02.2014 12:14 6,9 C 6,7 C 84 % 1012,5 hPa 0,0 l/m 0 min 0 min 0,0 UV-I 185 W/m 18,0 km/h (3 Bft)
22.02.2014 12:16 6,9 C 6,7 C 84 % 1012,6 hPa 0,0 l/m 0 min 0 min 0,0 UV-I 139 W/m 15,4 km/h (3 Bft)
22.02.2014 12:18 6,9 C 6,7 C 84 % 1012,6 hPa 0,0 l/m 0 min 0 min 0,0 UV-I 158 W/m 7,7 km/h (2 Bft)
22.02.2014 12:20 6,9 C 6,7 C 84 % 1012,6 hPa 0,0 l/m 0 min 0 min 0,0 UV-I 165 W/m 25,7 km/h (4 Bft)
22.02.2014 12:22 6,9 C 6,7 C 84 % 1012,6 hPa 0,0 l/m 0 min 0 min 0,0 UV-I 181 W/m 18,0 km/h (3 Bft)
22.02.2014 12:24 7,0 C 6,7 C 84 % 1012,6 hPa 0,0 l/m 0 min 0 min 0,0 UV-I 153 W/m 12,9 km/h (3 Bft)
22.02.2014 12:26 7,1 C 6,7 C 84 % 1012,6 hPa 0,0 l/m 0 min 0 min 0,0 UV-I 162 W/m 18,0 km/h (3 Bft)
22.02.2014 12:28 7,1 C 6,7 C 84 % 1012,7 hPa 0,0 l/m 0 min 0 min 0,0 UV-I 151 W/m 7,7 km/h (2 Bft)
22.02.2014 12:30 7,1 C 6,7 C 84 % 1012,7 hPa 0,0 l/m 0 min 2 min 0,0 UV-I 197 W/m 15,4 km/h (3 Bft)
22.02.2014 12:32 7,1 C 6,7 C 84 % 1012,6 hPa 0,0 l/m 0 min 2 min 0,0 UV-I 192 W/m 15,4 km/h (3 Bft)
22.02.2014 12:34 7,1 C 6,7 C 84 % 1012,6 hPa 0,0 l/m 0 min 0 min 0,0 UV-I 225 W/m 12,9 km/h (3 Bft)
22.02.2014 12:36 7,2 C 6,7 C 84 % 1012,6 hPa 0,0 l/m 0 min 0 min 0,0 UV-I 207 W/m 12,9 km/h (3 Bft)
22.02.2014 12:38 7,2 C 7,2 C 83 % 1012,6 hPa 0,0 l/m 0 min 0 min 0,0 UV-I 174 W/m 25,7 km/h (4 Bft)
22.02.2014 12:40 7,2 C 6,7 C 83 % 1012,6 hPa 0,0 l/m 0 min 0 min 0,0 UV-I 156 W/m 18,0 km/h (3 Bft)
22.02.2014 12:42 7,2 C 6,7 C 83 % 1012,7 hPa 0,0 l/m 0 min 0 min 0,0 UV-I 197 W/m 18,0 km/h (3 Bft)
22.02.2014 12:44 7,2 C 6,7 C 83 % 1012,7 hPa 0,0 l/m 0 min 0 min 0,0 UV-I 192 W/m 20,6 km/h (4 Bft)
22.02.2014 12:46 7,2 C 6,7 C 83 % 1012,8 hPa 0,0 l/m 0 min 0 min 0,0 UV-I 123 W/m 30,9 km/h (5 Bft)
22.02.2014 12:48 7,2 C 6,7 C 83 % 1012,9 hPa 0,0 l/m 0 min 0 min 0,0 UV-I 118 W/m 18,0 km/h (3 Bft)
22.02.2014 12:50 7,1 C 6,7 C 83 % 1012,9 hPa 0,0 l/m 0 min 0 min 0,0 UV-I 114 W/m 10,3 km/h (2 Bft)
22.02.2014 12:52 7,1 C 6,7 C 83 % 1012,9 hPa 0,0 l/m 0 min 0 min 0,0 UV-I 98 W/m 12,9 km/h (3 Bft)
22.02.2014 12:54 7,1 C 6,7 C 83 % 1012,9 hPa 0,0 l/m 0 min 0 min 0,0 UV-I 93 W/m 15,4 km/h (3 Bft)
22.02.2014 12:56 7,1 C 6,1 C 83 % 1012,8 hPa 0,0 l/m 0 min 0 min 0,0 UV-I 98 W/m 20,6 km/h (4 Bft)
22.02.2014 12:58 7,1 C 6,1 C 83 % 1012,8 hPa 0,0 l/m 0 min 0 min 0,0 UV-I 125 W/m 23,2 km/h (4 Bft)
22.02.2014 13:00 7,1 C 6,7 C 83 % 1012,8 hPa 0,0 l/m 0 min 0 min 0,0 UV-I 134 W/m 7,7 km/h (2 Bft)
22.02.2014 13:02 7,1 C 6,7 C 83 % 1012,7 hPa 0,0 l/m 0 min 0 min 0,0 UV-I 132 W/m 10,3 km/h (2 Bft)
22.02.2014 13:04 7,2 C 6,7 C 83 % 1012,7 hPa 0,0 l/m 0 min 0 min 0,0 UV-I 114 W/m 5,1 km/h (1 Bft)
22.02.2014 13:06 7,2 C 6,7 C 84 % 1012,8 hPa 0,0 l/m 0 min 0 min 0,0 UV-I 139 W/m 15,4 km/h (3 Bft)
22.02.2014 13:08 7,3 C 7,2 C 83 % 1012,8 hPa 0,0 l/m 0 min 0 min 0,0 UV-I 209 W/m 12,9 km/h (3 Bft)
22.02.2014 13:10 7,3 C 7,2 C 83 % 1012,8 hPa 0,0 l/m 0 min 0 min 0,0 UV-I 179 W/m 18,0 km/h (3 Bft)
22.02.2014 13:12 7,3 C 7,2 C 83 % 1012,7 hPa 0,0 l/m 0 min 0 min 0,0 UV-I 174 W/m 18,0 km/h (3 Bft)
22.02.2014 13:14 7,4 C 7,2 C 83 % 1012,8 hPa 0,0 l/m 0 min 0 min 0,0 UV-I 130 W/m 5,1 km/h (1 Bft)
22.02.2014 13:16 7,4 C 7,2 C 83 % 1012,6 hPa 0,0 l/m 0 min 0 min 0,0 UV-I 121 W/m 10,3 km/h (2 Bft)
22.02.2014 13:18 7,4 C 7,2 C 83 % 1012,7 hPa 0,0 l/m 0 min 0 min 0,0 UV-I 128 W/m 12,9 km/h (3 Bft)
22.02.2014 13:20 7,4 C 7,2 C 83 % 1012,8 hPa 0,0 l/m 0 min 0 min 0,0 UV-I 148 W/m 7,7 km/h (2 Bft)
22.02.2014 13:22 7,5 C 7,2 C 83 % 1012,8 hPa 0,0 l/m 0 min 0 min 0,0 UV-I 139 W/m 15,4 km/h (3 Bft)
22.02.2014 13:24 7,5 C 7,2 C 83 % 1012,8 hPa 0,0 l/m 0 min 0 min 0,0 UV-I 127 W/m 10,3 km/h (2 Bft)
22.02.2014 13:26 7,5 C 7,2 C 83 % 1012,9 hPa 0,0 l/m 0 min 0 min 0,0 UV-I 149 W/m 23,2 km/h (4 Bft)
22.02.2014 13:28 7,6 C 7,2 C 83 % 1012,9 hPa 0,0 l/m 0 min 0 min 0,0 UV-I 216 W/m 18,0 km/h (3 Bft)
22.02.2014 13:30 7,6 C 7,2 C 82 % 1012,9 hPa 0,0 l/m 0 min 0 min 0,0 UV-I 211 W/m 7,7 km/h (2 Bft)
22.02.2014 13:32 7,6 C 7,2 C 82 % 1012,9 hPa 0,0 l/m 0 min 0 min 0,0 UV-I 225 W/m 18,0 km/h (3 Bft)
22.02.2014 13:34 7,7 C 7,2 C 82 % 1012,8 hPa 0,0 l/m 0 min 0 min 0,0 UV-I 206 W/m 18,0 km/h (3 Bft)
22.02.2014 13:36 7,7 C 7,2 C 82 % 1012,8 hPa 0,0 l/m 0 min 0 min 0,0 UV-I 185 W/m 10,3 km/h (2 Bft)
22.02.2014 13:38 7,7 C 7,2 C 82 % 1012,8 hPa 0,0 l/m 0 min 0 min 0,0 UV-I 200 W/m 23,2 km/h (4 Bft)
22.02.2014 13:40 7,7 C 7,2 C 82 % 1012,8 hPa 0,0 l/m 0 min 0 min 0,0 UV-I 192 W/m 10,3 km/h (2 Bft)
22.02.2014 13:42 7,7 C 7,2 C 82 % 1012,8 hPa 0,0 l/m 0 min 0 min 0,0 UV-I 192 W/m 18,0 km/h (3 Bft)
22.02.2014 13:44 7,7 C 7,2 C 82 % 1012,8 hPa 0,0 l/m 0 min 0 min 0,0 UV-I 172 W/m 10,3 km/h (2 Bft)
22.02.2014 13:46 7,7 C 7,2 C 82 % 1012,9 hPa 0,0 l/m 0 min 0 min 0,0 UV-I 135 W/m 12,9 km/h (3 Bft)
22.02.2014 13:48 7,7 C 7,2 C 82 % 1012,9 hPa 0,0 l/m 0 min 0 min 0,0 UV-I 100 W/m 15,4 km/h (3 Bft)
22.02.2014 13:50 7,8 C 7,2 C 82 % 1012,9 hPa 0,0 l/m 0 min 0 min 0,0 UV-I 93 W/m 7,7 km/h (2 Bft)
22.02.2014 13:52 7,7 C 7,2 C 81 % 1012,9 hPa 0,0 l/m 0 min 0 min 0,0 UV-I 86 W/m 12,9 km/h (3 Bft)
22.02.2014 13:54 7,7 C 7,2 C 81 % 1012,8 hPa 0,0 l/m 0 min 0 min 0,0 UV-I 76 W/m 10,3 km/h (2 Bft)
22.02.2014 13:56 7,7 C 6,7 C 81 % 1012,8 hPa 0,0 l/m 0 min 0 min 0,0 UV-I 88 W/m 20,6 km/h (4 Bft)
22.02.2014 13:58 7,7 C 7,2 C 81 % 1012,9 hPa 0,0 l/m 0 min 0 min 0,0 UV-I 113 W/m 10,3 km/h (2 Bft)
22.02.2014 14:00 7,7 C 7,2 C 82 % 1012,9 hPa 0,0 l/m 0 min 0 min 0,0 UV-I 132 W/m 15,4 km/h (3 Bft)
22.02.2014 14:02 7,7 C 7,2 C 82 % 1013,0 hPa 0,0 l/m 0 min 0 min 0,0 UV-I 153 W/m 10,3 km/h (2 Bft)
22.02.2014 14:04 7,7 C 7,2 C 82 % 1012,9 hPa 0,0 l/m 0 min 0 min 0,0 UV-I 178 W/m 7,7 km/h (2 Bft)
22.02.2014 14:06 7,8 C 7,2 C 82 % 1013,0 hPa 0,0 l/m 0 min 0 min 0,0 UV-I 156 W/m 12,9 km/h (3 Bft)
22.02.2014 14:08 7,8 C 7,2 C 81 % 1013,0 hPa 0,0 l/m 0 min 0 min 0,0 UV-I 130 W/m 7,7 km/h (2 Bft)
22.02.2014 14:10 7,8 C 7,2 C 81 % 1013,1 hPa 0,0 l/m 0 min 0 min 0,0 UV-I 135 W/m 10,3 km/h (2 Bft)
22.02.2014 14:12 7,8 C 7,2 C 81 % 1013,1 hPa 0,0 l/m 0 min 0 min 0,0 UV-I 120 W/m 15,4 km/h (3 Bft)
22.02.2014 14:14 7,8 C 7,2 C 81 % 1013,1 hPa 0,0 l/m 0 min 0 min 0,0 UV-I 107 W/m 10,3 km/h (2 Bft)
22.02.2014 14:16 7,8 C 7,2 C 81 % 1013,1 hPa 0,0 l/m 0 min 0 min 0,0 UV-I 90 W/m 12,9 km/h (3 Bft)
22.02.2014 14:18 7,7 C 7,2 C 81 % 1013,2 hPa 0,0 l/m 0 min 0 min 0,0 UV-I 76 W/m 12,9 km/h (3 Bft)
22.02.2014 14:20 7,7 C 7,2 C 81 % 1013,3 hPa 0,0 l/m 0 min 0 min 0,0 UV-I 102 W/m 7,7 km/h (2 Bft)
22.02.2014 14:22 7,7 C 7,2 C 81 % 1013,2 hPa 0,0 l/m 0 min 0 min 0,0 UV-I 97 W/m 10,3 km/h (2 Bft)
22.02.2014 14:24 7,7 C 6,7 C 81 % 1013,3 hPa 0,0 l/m 0 min 0 min 0,0 UV-I 74 W/m 7,7 km/h (2 Bft)
22.02.2014 14:26 7,7 C 6,7 C 81 % 1013,2 hPa 0,0 l/m 0 min 0 min 0,0 UV-I 84 W/m 12,9 km/h (3 Bft)
22.02.2014 14:28 7,7 C 6,7 C 81 % 1013,3 hPa 0,0 l/m 0 min 0 min 0,0 UV-I 98 W/m 15,4 km/h (3 Bft)
22.02.2014 14:30 7,7 C 7,2 C 81 % 1013,3 hPa 0,0 l/m 0 min 0 min 0,0 UV-I 97 W/m 12,9 km/h (3 Bft)
22.02.2014 14:32 7,7 C 7,2 C 81 % 1013,3 hPa 0,0 l/m 0 min 0 min 0,0 UV-I 88 W/m 10,3 km/h (2 Bft)
22.02.2014 14:34 7,7 C 7,2 C 82 % 1013,3 hPa 0,0 l/m 0 min 0 min 0,0 UV-I 97 W/m 10,3 km/h (2 Bft)
22.02.2014 14:36 7,7 C 7,2 C 81 % 1013,3 hPa 0,0 l/m 0 min 0 min 0,0 UV-I 102 W/m 18,0 km/h (3 Bft)
22.02.2014 14:38 7,7 C 7,2 C 81 % 1013,3 hPa 0,0 l/m 0 min 0 min 0,0 UV-I 128 W/m 7,7 km/h (2 Bft)
22.02.2014 14:40 7,7 C 7,2 C 82 % 1013,4 hPa 0,0 l/m 0 min 0 min 0,0 UV-I 118 W/m 12,9 km/h (3 Bft)
22.02.2014 14:42 7,7 C 7,2 C 82 % 1013,4 hPa 0,0 l/m 0 min 0 min 0,0 UV-I 102 W/m 7,7 km/h (2 Bft)
22.02.2014 14:44 7,7 C 7,2 C 82 % 1013,4 hPa 0,0 l/m 0 min 0 min 0,0 UV-I 111 W/m 7,7 km/h (2 Bft)
22.02.2014 14:46 7,7 C 7,2 C 82 % 1013,4 hPa 0,0 l/m 0 min 0 min 0,0 UV-I 104 W/m 0,0 km/h (0 Bft)
22.02.2014 14:48 7,7 C 7,2 C 82 % 1013,4 hPa 0,0 l/m 0 min 0 min 0,0 UV-I 83 W/m 7,7 km/h (2 Bft)
22.02.2014 14:50 7,7 C 7,2 C 82 % 1013,4 hPa 0,0 l/m 0 min 0 min 0,0 UV-I 70 W/m 12,9 km/h (3 Bft)
22.02.2014 14:52 7,7 C 6,7 C 81 % 1013,4 hPa 0,0 l/m 0 min 0 min 0,0 UV-I 65 W/m 15,4 km/h (3 Bft)
22.02.2014 14:54 7,6 C 6,7 C 81 % 1013,4 hPa 0,0 l/m 0 min 0 min 0,0 UV-I 47 W/m 2,6 km/h (1 Bft)
22.02.2014 14:56 7,6 C 6,7 C 81 % 1013,5 hPa 0,0 l/m 0 min 0 min 0,0 UV-I 42 W/m 20,6 km/h (4 Bft)
22.02.2014 14:58 7,5 C 6,7 C 81 % 1013,5 hPa 0,0 l/m 0 min 0 min 0,0 UV-I 53 W/m 7,7 km/h (2 Bft)
22.02.2014 15:00 7,4 C 6,7 C 81 % 1013,6 hPa 0,0 l/m 0 min 0 min 0,0 UV-I 69 W/m 10,3 km/h (2 Bft)
22.02.2014 15:02 7,4 C 6,7 C 81 % 1013,5 hPa 0,0 l/m 0 min 0 min 0,0 UV-I 62 W/m 7,7 km/h (2 Bft)
22.02.2014 15:04 7,4 C 6,7 C 82 % 1013,6 hPa 0,0 l/m 0 min 0 min 0,0 UV-I 62 W/m 12,9 km/h (3 Bft)
22.02.2014 15:06 7,4 C 6,7 C 82 % 1013,5 hPa 0,0 l/m 0 min 0 min 0,0 UV-I 70 W/m 18,0 km/h (3 Bft)
22.02.2014 15:08 7,4 C 6,7 C 82 % 1013,5 hPa 0,0 l/m 0 min 0 min 0,0 UV-I 79 W/m 5,1 km/h (1 Bft)
22.02.2014 15:10 7,4 C 6,7 C 82 % 1013,5 hPa 0,0 l/m 0 min 0 min 0,0 UV-I 95 W/m 18,0 km/h (3 Bft)
22.02.2014 15:12 7,4 C 6,7 C 82 % 1013,5 hPa 0,0 l/m 0 min 0 min 0,0 UV-I 118 W/m 7,7 km/h (2 Bft)
22.02.2014 15:14 7,4 C 7,2 C 82 % 1013,5 hPa 0,0 l/m 0 min 0 min 0,0 UV-I 139 W/m 5,1 km/h (1 Bft)
22.02.2014 15:16 7,5 C 7,2 C 82 % 1013,5 hPa 0,0 l/m 0 min 0 min 0,0 UV-I 163 W/m 10,3 km/h (2 Bft)
22.02.2014 15:18 7,6 C 7,2 C 82 % 1013,5 hPa 0,0 l/m 0 min 0 min 0,0 UV-I 167 W/m 12,9 km/h (3 Bft)
22.02.2014 15:20 7,6 C 7,2 C 81 % 1013,6 hPa 0,0 l/m 0 min 0 min 0,0 UV-I 165 W/m 15,4 km/h (3 Bft)
22.02.2014 15:22 7,6 C 7,2 C 81 % 1013,5 hPa 0,0 l/m 0 min 0 min 0,0 UV-I 158 W/m 15,4 km/h (3 Bft)
22.02.2014 15:24 7,6 C 7,2 C 81 % 1013,6 hPa 0,0 l/m 0 min 0 min 0,0 UV-I 139 W/m 15,4 km/h (3 Bft)
22.02.2014 15:26 7,6 C 7,2 C 81 % 1013,6 hPa 0,0 l/m 0 min 0 min 0,0 UV-I 127 W/m 18,0 km/h (3 Bft)
22.02.2014 15:28 7,6 C 7,2 C 81 % 1013,6 hPa 0,0 l/m 0 min 0 min 0,0 UV-I 135 W/m 12,9 km/h (3 Bft)
22.02.2014 15:30 7,6 C 7,2 C 81 % 1013,6 hPa 0,0 l/m 0 min 0 min 0,0 UV-I 125 W/m 7,7 km/h (2 Bft)
22.02.2014 15:32 7,7 C 7,2 C 81 % 1013,6 hPa 0,0 l/m 0 min 0 min 0,0 UV-I 105 W/m 2,6 km/h (1 Bft)
22.02.2014 15:34 7,6 C 6,7 C 81 % 1013,7 hPa 0,0 l/m 0 min 0 min 0,0 UV-I 69 W/m 7,7 km/h (2 Bft)
22.02.2014 15:36 7,6 C 6,7 C 81 % 1013,6 hPa 0,0 l/m 0 min 0 min 0,0 UV-I 72 W/m 12,9 km/h (3 Bft)
22.02.2014 15:38 7,6 C 6,7 C 81 % 1013,6 hPa 0,0 l/m 0 min 0 min 0,0 UV-I 65 W/m 15,4 km/h (3 Bft)
22.02.2014 15:40 7,5 C 6,7 C 81 % 1013,7 hPa 0,0 l/m 0 min 0 min 0,0 UV-I 63 W/m 10,3 km/h (2 Bft)
22.02.2014 15:42 7,4 C 6,7 C 81 % 1013,7 hPa 0,0 l/m 0 min 0 min 0,0 UV-I 63 W/m 10,3 km/h (2 Bft)
22.02.2014 15:44 7,4 C 6,7 C 81 % 1013,7 hPa 0,0 l/m 0 min 0 min 0,0 UV-I 69 W/m 12,9 km/h (3 Bft)
22.02.2014 15:46 7,4 C 6,7 C 81 % 1013,7 hPa 0,0 l/m 0 min 0 min 0,0 UV-I 69 W/m 10,3 km/h (2 Bft)
22.02.2014 15:48 7,4 C 6,7 C 81 % 1013,7 hPa 0,0 l/m 0 min 0 min 0,0 UV-I 72 W/m 7,7 km/h (2 Bft)
22.02.2014 15:50 7,4 C 6,7 C 81 % 1013,7 hPa 0,0 l/m 0 min 0 min 0,0 UV-I 81 W/m 15,4 km/h (3 Bft)
22.02.2014 15:52 7,4 C 6,7 C 82 % 1013,7 hPa 0,0 l/m 0 min 0 min 0,0 UV-I 102 W/m 15,4 km/h (3 Bft)
22.02.2014 15:54 7,4 C 6,7 C 82 % 1013,7 hPa 0,0 l/m 0 min 0 min 0,0 UV-I 113 W/m 5,1 km/h (1 Bft)
22.02.2014 15:56 7,4 C 6,7 C 82 % 1013,7 hPa 0,0 l/m 0 min 0 min 0,0 UV-I 116 W/m 7,7 km/h (2 Bft)
22.02.2014 15:58 7,5 C 6,7 C 81 % 1013,8 hPa 0,0 l/m 0 min 0 min 0,0 UV-I 109 W/m 15,4 km/h (3 Bft)
22.02.2014 16:00 7,5 C 6,7 C 81 % 1013,8 hPa 0,0 l/m 0 min 0 min 0,0 UV-I 107 W/m 7,7 km/h (2 Bft)
22.02.2014 16:02 7,5 C 6,7 C 81 % 1013,9 hPa 0,0 l/m 0 min 0 min 0,0 UV-I 98 W/m 25,7 km/h (4 Bft)
22.02.2014 16:04 7,6 C 6,7 C 81 % 1014,0 hPa 0,0 l/m 2 min 0 min 0,0 UV-I 279 W/m 12,9 km/h (3 Bft)
22.02.2014 16:06 7,7 C 6,7 C 81 % 1014,0 hPa 0,0 l/m 2 min 0 min 0,0 UV-I 251 W/m 15,4 km/h (3 Bft)
22.02.2014 16:08 7,8 C 6,7 C 81 % 1014,0 hPa 0,0 l/m 2 min 0 min 0,0 UV-I 230 W/m 2,6 km/h (1 Bft)
22.02.2014 16:10 8,0 C 6,7 C 80 % 1014,0 hPa 0,0 l/m 2 min 0 min 0,0 UV-I 218 W/m 5,1 km/h (1 Bft)
22.02.2014 16:12 8,1 C 6,7 C 80 % 1014,0 hPa 0,0 l/m 2 min 0 min 0,0 UV-I 218 W/m 18,0 km/h (3 Bft)
22.02.2014 16:14 8,1 C 6,7 C 79 % 1014,1 hPa 0,0 l/m 2 min 0 min 0,0 UV-I 216 W/m 18,0 km/h (3 Bft)
22.02.2014 16:16 8,1 C 6,7 C 79 % 1014,1 hPa 0,0 l/m 2 min 0 min 0,0 UV-I 204 W/m 7,7 km/h (2 Bft)
22.02.2014 16:18 8,1 C 6,7 C 79 % 1014,1 hPa 0,0 l/m 2 min 0 min 0,0 UV-I 176 W/m 18,0 km/h (3 Bft)
22.02.2014 16:20 8,0 C 6,7 C 79 % 1014,1 hPa 0,0 l/m 2 min 0 min 0,0 UV-I 195 W/m 18,0 km/h (3 Bft)
22.02.2014 16:22 7,9 C 6,7 C 79 % 1014,1 hPa 0,0 l/m 2 min 0 min 0,0 UV-I 192 W/m 10,3 km/h (2 Bft)
22.02.2014 16:24 7,9 C 6,7 C 79 % 1014,2 hPa 0,0 l/m 2 min 0 min 0,0 UV-I 185 W/m 12,9 km/h (3 Bft)
22.02.2014 16:26 7,8 C 6,7 C 79 % 1014,2 hPa 0,0 l/m 2 min 0 min 0,0 UV-I 181 W/m 12,9 km/h (3 Bft)
22.02.2014 16:28 7,8 C 6,1 C 79 % 1014,2 hPa 0,0 l/m 2 min 0 min 0,0 UV-I 176 W/m 18,0 km/h (3 Bft)
22.02.2014 16:30 7,7 C 6,1 C 79 % 1014,2 hPa 0,0 l/m 2 min 0 min 0,0 UV-I 169 W/m 20,6 km/h (4 Bft)
22.02.2014 16:32 7,7 C 6,1 C 79 % 1014,2 hPa 0,0 l/m 2 min 0 min 0,0 UV-I 163 W/m 10,3 km/h (2 Bft)
22.02.2014 16:34 7,7 C 6,1 C 80 % 1014,3 hPa 0,0 l/m 2 min 0 min 0,0 UV-I 156 W/m 10,3 km/h (2 Bft)
22.02.2014 16:36 7,6 C 6,1 C 80 % 1014,3 hPa 0,0 l/m 2 min 0 min 0,0 UV-I 153 W/m 12,9 km/h (3 Bft)
22.02.2014 16:38 7,6 C 6,1 C 80 % 1014,3 hPa 0,0 l/m 2 min 0 min 0,0 UV-I 144 W/m 10,3 km/h (2 Bft)
22.02.2014 16:40 7,6 C 6,1 C 80 % 1014,3 hPa 0,0 l/m 0 min 0 min 0,0 UV-I 65 W/m 7,7 km/h (2 Bft)
22.02.2014 16:42 7,6 C 6,1 C 79 % 1014,4 hPa 0,0 l/m 0 min 0 min 0,0 UV-I 74 W/m 10,3 km/h (2 Bft)
22.02.2014 16:44 7,5 C 6,1 C 79 % 1014,3 hPa 0,0 l/m 2 min 0 min 0,0 UV-I 113 W/m 7,7 km/h (2 Bft)
22.02.2014 16:46 7,5 C 6,1 C 80 % 1014,3 hPa 0,0 l/m 0 min 0 min 0,0 UV-I 56 W/m 2,6 km/h (1 Bft)
22.02.2014 16:48 7,4 C 6,1 C 80 % 1014,4 hPa 0,0 l/m 0 min 0 min 0,0 UV-I 58 W/m 7,7 km/h (2 Bft)
22.02.2014 16:50 7,4 C 6,1 C 80 % 1014,4 hPa 0,0 l/m 0 min 0 min 0,0 UV-I 53 W/m 15,4 km/h (3 Bft)
22.02.2014 16:52 7,4 C 6,1 C 80 % 1014,4 hPa 0,0 l/m 0 min 0 min 0,0 UV-I 60 W/m 10,3 km/h (2 Bft)
22.02.2014 16:54 7,3 C 6,1 C 80 % 1014,5 hPa 0,0 l/m 0 min 0 min 0,0 UV-I 77 W/m 20,6 km/h (4 Bft)
22.02.2014 16:56 7,3 C 6,1 C 80 % 1014,5 hPa 0,0 l/m 0 min 0 min 0,0 UV-I 76 W/m 15,4 km/h (3 Bft)
22.02.2014 16:58 7,3 C 6,1 C 80 % 1014,5 hPa 0,0 l/m 0 min 0 min 0,0 UV-I 74 W/m 10,3 km/h (2 Bft)
22.02.2014 17:00 7,3 C 6,1 C 80 % 1014,7 hPa 0,0 l/m 0 min 0 min 0,0 UV-I 67 W/m 10,3 km/h (2 Bft)
22.02.2014 17:02 7,3 C 6,1 C 81 % 1014,7 hPa 0,0 l/m 0 min 0 min 0,0 UV-I 56 W/m 10,3 km/h (2 Bft)
22.02.2014 17:04 7,3 C 6,1 C 81 % 1014,7 hPa 0,0 l/m 0 min 0 min 0,0 UV-I 44 W/m 12,9 km/h (3 Bft)
22.02.2014 17:06 7,3 C 6,1 C 80 % 1014,7 hPa 0,0 l/m 0 min 0 min 0,0 UV-I 42 W/m 10,3 km/h (2 Bft)
22.02.2014 17:08 7,3 C 6,1 C 80 % 1014,7 hPa 0,0 l/m 0 min 0 min 0,0 UV-I 40 W/m 10,3 km/h (2 Bft)
22.02.2014 17:10 7,3 C 6,1 C 80 % 1014,7 hPa 0,0 l/m 0 min 0 min 0,0 UV-I 44 W/m 20,6 km/h (4 Bft)
22.02.2014 17:12 7,3 C 6,1 C 80 % 1014,7 hPa 0,0 l/m 0 min 0 min 0,0 UV-I 46 W/m 7,7 km/h (2 Bft)
22.02.2014 17:14 7,3 C 6,1 C 81 % 1014,7 hPa 0,0 l/m 0 min 0 min 0,0 UV-I 44 W/m 10,3 km/h (2 Bft)
22.02.2014 17:16 7,4 C 6,1 C 80 % 1014,7 hPa 0,0 l/m 0 min 0 min 0,0 UV-I 40 W/m 20,6 km/h (4 Bft)
22.02.2014 17:18 7,4 C 6,1 C 80 % 1014,7 hPa 0,0 l/m 0 min 0 min 0,0 UV-I 42 W/m 7,7 km/h (2 Bft)
22.02.2014 17:20 7,3 C 6,1 C 80 % 1014,8 hPa 0,0 l/m 0 min 0 min 0,0 UV-I 39 W/m 7,7 km/h (2 Bft)
22.02.2014 17:22 7,3 C 6,1 C 80 % 1014,8 hPa 0,0 l/m 0 min 0 min 0,0 UV-I 44 W/m 10,3 km/h (2 Bft)
22.02.2014 17:24 7,3 C 6,1 C 80 % 1014,9 hPa 0,0 l/m 0 min 0 min 0,0 UV-I 46 W/m 7,7 km/h (2 Bft)
22.02.2014 17:26 7,2 C 6,1 C 80 % 1014,9 hPa 0,0 l/m 0 min 0 min 0,0 UV-I 42 W/m 10,3 km/h (2 Bft)
22.02.2014 17:28 7,2 C 6,1 C 80 % 1014,9 hPa 0,0 l/m 0 min 0 min 0,0 UV-I 40 W/m 10,3 km/h (2 Bft)
22.02.2014 17:30 7,2 C 6,1 C 81 % 1014,9 hPa 0,0 l/m 0 min 0 min 0,0 UV-I 37 W/m 5,1 km/h (1 Bft)
22.02.2014 17:32 7,2 C 6,1 C 81 % 1015,0 hPa 0,0 l/m 0 min 0 min 0,0 UV-I 33 W/m 0,0 km/h (0 Bft)
22.02.2014 17:34 7,2 C 5,6 C 81 % 1015,0 hPa 0,0 l/m 0 min 0 min 0,0 UV-I 32 W/m 10,3 km/h (2 Bft)
22.02.2014 17:36 7,2 C 5,6 C 81 % 1015,0 hPa 0,0 l/m 2 min 0 min 0,0 UV-I 32 W/m 7,7 km/h (2 Bft)
22.02.2014 17:38 7,2 C 5,6 C 81 % 1015,0 hPa 0,0 l/m 0 min 0 min 0,0 UV-I 25 W/m 0,0 km/h (0 Bft)
22.02.2014 17:40 7,1 C 5,6 C 81 % 1015,1 hPa 0,0 l/m 0 min 0 min 0,0 UV-I 19 W/m 2,6 km/h (1 Bft)
22.02.2014 17:42 7,1 C 5,6 C 81 % 1015,1 hPa 0,0 l/m 0 min 0 min 0,0 UV-I 18 W/m 10,3 km/h (2 Bft)
22.02.2014 17:44 7,0 C 5,6 C 81 % 1015,1 hPa 0,0 l/m 0 min 0 min 0,0 UV-I 14 W/m 7,7 km/h (2 Bft)
22.02.2014 17:46 6,9 C 5,6 C 81 % 1015,2 hPa 0,0 l/m 0 min 0 min 0,0 UV-I 12 W/m 7,7 km/h (2 Bft)
22.02.2014 17:48 6,9 C 5,0 C 81 % 1015,1 hPa 0,0 l/m 0 min 0 min 0,0 UV-I 11 W/m 7,7 km/h (2 Bft)
22.02.2014 17:50 6,8 C 5,0 C 81 % 1015,1 hPa 0,0 l/m 0 min 0 min 0,0 UV-I 9 W/m 5,1 km/h (1 Bft)
22.02.2014 17:52 6,8 C 5,0 C 81 % 1015,1 hPa 0,0 l/m 0 min 0 min 0,0 UV-I 9 W/m 10,3 km/h (2 Bft)
22.02.2014 17:54 6,8 C 5,0 C 81 % 1015,2 hPa 0,0 l/m 0 min 0 min 0,0 UV-I 7 W/m 7,7 km/h (2 Bft)
22.02.2014 17:56 6,7 C 5,0 C 82 % 1015,2 hPa 0,0 l/m 0 min 0 min 0,0 UV-I 7 W/m 10,3 km/h (2 Bft)
22.02.2014 17:58 6,7 C 5,0 C 82 % 1015,3 hPa 0,0 l/m 0 min 0 min 0,0 UV-I 5 W/m 5,1 km/h (1 Bft)
22.02.2014 18:00 6,7 C 5,0 C 82 % 1015,3 hPa 0,0 l/m 0 min 0 min 0,0 UV-I 5 W/m 0,0 km/h (0 Bft)
22.02.2014 18:02 6,7 C 5,0 C 82 % 1015,3 hPa 0,0 l/m 0 min 0 min 0,0 UV-I 5 W/m 7,7 km/h (2 Bft)
22.02.2014 18:04 6,7 C 5,0 C 82 % 1015,3 hPa 0,0 l/m 0 min 0 min 0,0 UV-I 0 W/m 7,7 km/h (2 Bft)
22.02.2014 18:06 6,6 C 5,0 C 82 % 1015,3 hPa 0,0 l/m 0 min 0 min 0,0 UV-I 0 W/m 0,0 km/h (0 Bft)
22.02.2014 18:08 6,6 C 5,0 C 82 % 1015,3 hPa 0,0 l/m 0 min 0 min 0,0 UV-I 0 W/m 0,0 km/h (0 Bft)
22.02.2014 18:10 6,6 C 5,0 C 82 % 1015,3 hPa 0,0 l/m 0 min 0 min 0,0 UV-I 0 W/m 12,9 km/h (3 Bft)
22.02.2014 18:12 6,5 C 5,0 C 82 % 1015,4 hPa 0,0 l/m 0 min 0 min 0,0 UV-I 0 W/m 5,1 km/h (1 Bft)
22.02.2014 18:14 6,5 C 5,0 C 82 % 1015,4 hPa 0,0 l/m 0 min 0 min 0,0 UV-I 0 W/m 5,1 km/h (1 Bft)
22.02.2014 18:16 6,5 C 5,0 C 82 % 1015,4 hPa 0,0 l/m 0 min 0 min 0,0 UV-I 0 W/m 0,0 km/h (0 Bft)
22.02.2014 18:18 6,5 C 5,0 C 82 % 1015,5 hPa 0,0 l/m 0 min 0 min 0,0 UV-I 0 W/m 12,9 km/h (3 Bft)
22.02.2014 18:20 6,5 C 5,0 C 82 % 1015,5 hPa 0,0 l/m 0 min 0 min 0,0 UV-I 0 W/m 7,7 km/h (2 Bft)
22.02.2014 18:22 6,5 C 5,0 C 83 % 1015,5 hPa 0,0 l/m 0 min 0 min 0,0 UV-I 0 W/m 2,6 km/h (1 Bft)
22.02.2014 18:24 6,5 C 5,0 C 83 % 1015,5 hPa 0,0 l/m 0 min 0 min 0,0 UV-I 0 W/m 7,7 km/h (2 Bft)
22.02.2014 18:26 6,4 C 5,0 C 83 % 1015,6 hPa 0,0 l/m 0 min 0 min 0,0 UV-I 0 W/m 5,1 km/h (1 Bft)
22.02.2014 18:28 6,5 C 5,0 C 83 % 1015,6 hPa 0,0 l/m 0 min 0 min 0,0 UV-I 0 W/m 15,4 km/h (3 Bft)
22.02.2014 18:30 6,5 C 5,0 C 83 % 1015,6 hPa 0,0 l/m 0 min 0 min 0,0 UV-I 0 W/m 15,4 km/h (3 Bft)
22.02.2014 18:32 6,6 C 5,0 C 83 % 1015,6 hPa 0,0 l/m 0 min 0 min 0,0 UV-I 0 W/m 15,4 km/h (3 Bft)
22.02.2014 18:34 6,6 C 5,0 C 83 % 1015,6 hPa 0,0 l/m 0 min 0 min 0,0 UV-I 0 W/m 10,3 km/h (2 Bft)
22.02.2014 18:36 6,6 C 5,0 C 83 % 1015,6 hPa 0,0 l/m 0 min 0 min 0,0 UV-I 0 W/m 10,3 km/h (2 Bft)
22.02.2014 18:38 6,6 C 5,0 C 83 % 1015,7 hPa 0,0 l/m 0 min 0 min 0,0 UV-I 0 W/m 23,2 km/h (4 Bft)
22.02.2014 18:40 6,6 C 5,0 C 83 % 1015,7 hPa 0,0 l/m 0 min 0 min 0,0 UV-I 0 W/m 7,7 km/h (2 Bft)
22.02.2014 18:42 6,6 C 5,0 C 83 % 1015,7 hPa 0,0 l/m 0 min 0 min 0,0 UV-I 0 W/m 2,6 km/h (1 Bft)
22.02.2014 18:44 6,6 C 5,0 C 83 % 1015,8 hPa 0,0 l/m 0 min 0 min 0,0 UV-I 0 W/m 5,1 km/h (1 Bft)
22.02.2014 18:46 6,6 C 5,0 C 82 % 1015,8 hPa 0,0 l/m 0 min 0 min 0,0 UV-I 0 W/m 0,0 km/h (0 Bft)
22.02.2014 18:48 6,6 C 5,0 C 82 % 1015,8 hPa 0,0 l/m 0 min 0 min 0,0 UV-I 0 W/m 20,6 km/h (4 Bft)
22.02.2014 18:50 6,6 C 5,0 C 82 % 1015,8 hPa 0,0 l/m 0 min 0 min 0,0 UV-I 0 W/m 10,3 km/h (2 Bft)
22.02.2014 18:52 6,6 C 5,0 C 82 % 1015,9 hPa 0,0 l/m 0 min 0 min 0,0 UV-I 0 W/m 5,1 km/h (1 Bft)
22.02.2014 18:54 6,6 C 5,0 C 82 % 1016,0 hPa 0,0 l/m 0 min 0 min 0,0 UV-I 0 W/m 2,6 km/h (1 Bft)
22.02.2014 18:56 6,6 C 5,0 C 82 % 1016,1 hPa 0,0 l/m 0 min 0 min 0,0 UV-I 0 W/m 15,4 km/h (3 Bft)
22.02.2014 18:58 6,6 C 5,0 C 82 % 1016,1 hPa 0,0 l/m 0 min 0 min 0,0 UV-I 0 W/m 5,1 km/h (1 Bft)
22.02.2014 19:00 6,7 C 5,0 C 82 % 1016,0 hPa 0,0 l/m 0 min 0 min 0,0 UV-I 0 W/m 0,0 km/h (0 Bft)
22.02.2014 19:02 6,7 C 5,0 C 82 % 1016,1 hPa 0,0 l/m 0 min 0 min 0,0 UV-I 0 W/m 5,1 km/h (1 Bft)
22.02.2014 19:04 6,7 C 5,0 C 82 % 1016,1 hPa 0,0 l/m 0 min 0 min 0,0 UV-I 0 W/m 7,7 km/h (2 Bft)
22.02.2014 19:06 6,7 C 5,0 C 82 % 1016,1 hPa 0,0 l/m 0 min 0 min 0,0 UV-I 0 W/m 15,4 km/h (3 Bft)
22.02.2014 19:08 6,7 C 5,0 C 82 % 1016,1 hPa 0,0 l/m 0 min 0 min 0,0 UV-I 0 W/m 25,7 km/h (4 Bft)
22.02.2014 19:10 6,7 C 5,0 C 81 % 1016,1 hPa 0,0 l/m 0 min 0 min 0,0 UV-I 0 W/m 12,9 km/h (3 Bft)
22.02.2014 19:12 6,7 C 5,0 C 81 % 1016,1 hPa 0,0 l/m 0 min 0 min 0,0 UV-I 0 W/m 0,0 km/h (0 Bft)
22.02.2014 19:14 6,7 C 5,0 C 81 % 1016,2 hPa 0,0 l/m 0 min 0 min 0,0 UV-I 0 W/m 7,7 km/h (2 Bft)
22.02.2014 19:16 6,7 C 5,0 C 81 % 1016,2 hPa 0,0 l/m 0 min 0 min 0,0 UV-I 0 W/m 15,4 km/h (3 Bft)
22.02.2014 19:18 6,7 C 5,0 C 81 % 1016,2 hPa 0,0 l/m 0 min 0 min 0,0 UV-I 0 W/m 12,9 km/h (3 Bft)
22.02.2014 19:20 6,7 C 5,0 C 81 % 1016,3 hPa 0,0 l/m 0 min 0 min 0,0 UV-I 0 W/m 10,3 km/h (2 Bft)
22.02.2014 19:22 6,7 C 5,0 C 81 % 1016,3 hPa 0,0 l/m 0 min 0 min 0,0 UV-I 0 W/m 5,1 km/h (1 Bft)
22.02.2014 19:24 6,7 C 5,0 C 81 % 1016,3 hPa 0,0 l/m 0 min 0 min 0,0 UV-I 0 W/m 12,9 km/h (3 Bft)
22.02.2014 19:26 6,7 C 5,0 C 81 % 1016,3 hPa 0,0 l/m 0 min 0 min 0,0 UV-I 0 W/m 18,0 km/h (3 Bft)
22.02.2014 19:28 6,7 C 5,0 C 81 % 1016,4 hPa 0,0 l/m 0 min 0 min 0,0 UV-I 0 W/m 10,3 km/h (2 Bft)
22.02.2014 19:30 6,7 C 5,0 C 81 % 1016,4 hPa 0,0 l/m 0 min 0 min 0,0 UV-I 0 W/m 15,4 km/h (3 Bft)
22.02.2014 19:32 6,7 C 5,0 C 81 % 1016,4 hPa 0,0 l/m 0 min 0 min 0,0 UV-I 0 W/m 10,3 km/h (2 Bft)
22.02.2014 19:34 6,7 C 5,0 C 81 % 1016,4 hPa 0,0 l/m 0 min 0 min 0,0 UV-I 0 W/m 5,1 km/h (1 Bft)
22.02.2014 19:36 6,7 C 5,0 C 81 % 1016,3 hPa 0,0 l/m 0 min 0 min 0,0 UV-I 0 W/m 12,9 km/h (3 Bft)
22.02.2014 19:38 6,7 C 5,0 C 81 % 1016,4 hPa 0,0 l/m 0 min 0 min 0,0 UV-I 0 W/m 15,4 km/h (3 Bft)
22.02.2014 19:40 6,7 C 5,0 C 81 % 1016,3 hPa 0,0 l/m 0 min 0 min 0,0 UV-I 0 W/m 7,7 km/h (2 Bft)
22.02.2014 19:42 6,7 C 5,0 C 81 % 1016,4 hPa 0,0 l/m 0 min 0 min 0,0 UV-I 0 W/m 15,4 km/h (3 Bft)
22.02.2014 19:44 6,7 C 5,0 C 81 % 1016,4 hPa 0,0 l/m 0 min 0 min 0,0 UV-I 0 W/m 15,4 km/h (3 Bft)
22.02.2014 19:46 6,7 C 5,0 C 81 % 1016,5 hPa 0,0 l/m 0 min 0 min 0,0 UV-I 0 W/m 15,4 km/h (3 Bft)
22.02.2014 19:48 6,7 C 5,0 C 81 % 1016,5 hPa 0,0 l/m 0 min 0 min 0,0 UV-I 0 W/m 25,7 km/h (4 Bft)
22.02.2014 19:50 6,6 C 5,0 C 81 % 1016,5 hPa 0,0 l/m 0 min 0 min 0,0 UV-I 0 W/m 20,6 km/h (4 Bft)
22.02.2014 19:52 6,6 C 5,0 C 81 % 1016,5 hPa 0,0 l/m 0 min 0 min 0,0 UV-I 0 W/m 15,4 km/h (3 Bft)
22.02.2014 19:54 6,6 C 5,0 C 81 % 1016,5 hPa 0,0 l/m 0 min 0 min 0,0 UV-I 0 W/m 7,7 km/h (2 Bft)
22.02.2014 19:56 6,5 C 5,0 C 81 % 1016,5 hPa 0,0 l/m 0 min 0 min 0,0 UV-I 0 W/m 15,4 km/h (3 Bft)
22.02.2014 19:58 6,4 C 4,4 C 81 % 1016,5 hPa 0,0 l/m 0 min 0 min 0,0 UV-I 0 W/m 12,9 km/h (3 Bft)
22.02.2014 20:00 6,4 C 4,4 C 81 % 1016,5 hPa 0,0 l/m 0 min 0 min 0,0 UV-I 0 W/m 18,0 km/h (3 Bft)
22.02.2014 20:02 6,4 C 4,4 C 81 % 1016,5 hPa 0,0 l/m 0 min 0 min 0,0 UV-I 0 W/m 10,3 km/h (2 Bft)
22.02.2014 20:04 6,4 C 4,4 C 81 % 1016,5 hPa 0,0 l/m 0 min 0 min 0,0 UV-I 0 W/m 10,3 km/h (2 Bft)
22.02.2014 20:06 6,3 C 4,4 C 81 % 1016,5 hPa 0,0 l/m 0 min 0 min 0,0 UV-I 0 W/m 2,6 km/h (1 Bft)
22.02.2014 20:08 6,3 C 4,4 C 81 % 1016,5 hPa 0,0 l/m 0 min 0 min 0,0 UV-I 0 W/m 10,3 km/h (2 Bft)
22.02.2014 20:10 6,2 C 4,4 C 81 % 1016,5 hPa 0,0 l/m 0 min 0 min 0,0 UV-I 0 W/m 5,1 km/h (1 Bft)
22.02.2014 20:12 6,1 C 3,9 C 82 % 1016,5 hPa 0,0 l/m 0 min 0 min 0,0 UV-I 0 W/m 10,3 km/h (2 Bft)
22.02.2014 20:14 6,1 C 3,9 C 82 % 1016,6 hPa 0,0 l/m 0 min 0 min 0,0 UV-I 0 W/m 7,7 km/h (2 Bft)
22.02.2014 20:16 6,1 C 3,9 C 82 % 1016,5 hPa 0,0 l/m 0 min 0 min 0,0 UV-I 0 W/m 12,9 km/h (3 Bft)
22.02.2014 20:18 6,0 C 4,4 C 82 % 1016,6 hPa 0,0 l/m 0 min 0 min 0,0 UV-I 0 W/m 10,3 km/h (2 Bft)
22.02.2014 20:20 6,0 C 4,4 C 82 % 1016,7 hPa 0,0 l/m 0 min 0 min 0,0 UV-I 0 W/m 15,4 km/h (3 Bft)
22.02.2014 20:22 6,0 C 4,4 C 82 % 1016,7 hPa 0,0 l/m 0 min 0 min 0,0 UV-I 0 W/m 10,3 km/h (2 Bft)
22.02.2014 20:24 5,9 C 4,4 C 82 % 1016,6 hPa 0,0 l/m 0 min 0 min 0,0 UV-I 0 W/m 10,3 km/h (2 Bft)
22.02.2014 20:26 5,9 C 4,4 C 82 % 1016,6 hPa 0,0 l/m 0 min 0 min 0,0 UV-I 0 W/m 7,7 km/h (2 Bft)
22.02.2014 20:28 5,9 C 4,4 C 82 % 1016,7 hPa 0,0 l/m 0 min 0 min 0,0 UV-I 0 W/m 5,1 km/h (1 Bft)
22.02.2014 20:30 5,9 C 3,9 C 82 % 1016,7 hPa 0,0 l/m 0 min 0 min 0,0 UV-I 0 W/m 10,3 km/h (2 Bft)
22.02.2014 20:32 5,8 C 3,9 C 82 % 1016,8 hPa 0,0 l/m 0 min 0 min 0,0 UV-I 0 W/m 10,3 km/h (2 Bft)
22.02.2014 20:34 5,8 C 3,9 C 82 % 1016,8 hPa 0,0 l/m 0 min 0 min 0,0 UV-I 0 W/m 12,9 km/h (3 Bft)
22.02.2014 20:36 5,8 C 3,9 C 82 % 1016,9 hPa 0,0 l/m 0 min 0 min 0,0 UV-I 0 W/m 7,7 km/h (2 Bft)
22.02.2014 20:38 5,7 C 3,9 C 82 % 1016,8 hPa 0,0 l/m 0 min 0 min 0,0 UV-I 0 W/m 12,9 km/h (3 Bft)
22.02.2014 20:40 5,7 C 3,9 C 83 % 1016,9 hPa 0,0 l/m 0 min 0 min 0,0 UV-I 0 W/m 12,9 km/h (3 Bft)
22.02.2014 20:42 5,7 C 3,9 C 82 % 1016,9 hPa 0,0 l/m 0 min 0 min 0,0 UV-I 0 W/m 7,7 km/h (2 Bft)
22.02.2014 20:44 5,6 C 3,9 C 83 % 1016,9 hPa 0,0 l/m 0 min 0 min 0,0 UV-I 0 W/m 0,0 km/h (0 Bft)
22.02.2014 20:46 5,6 C 3,9 C 83 % 1017,0 hPa 0,0 l/m 0 min 0 min 0,0 UV-I 0 W/m 2,6 km/h (1 Bft)
22.02.2014 20:48 5,5 C 3,3 C 83 % 1017,0 hPa 0,0 l/m 0 min 0 min 0,0 UV-I 0 W/m 5,1 km/h (1 Bft)
22.02.2014 20:50 5,4 C 3,3 C 83 % 1017,0 hPa 0,0 l/m 0 min 0 min 0,0 UV-I 0 W/m 0,0 km/h (0 Bft)
22.02.2014 20:52 5,4 C 3,3 C 83 % 1016,9 hPa 0,0 l/m 0 min 0 min 0,0 UV-I 0 W/m 15,4 km/h (3 Bft)
22.02.2014 20:54 5,4 C 3,9 C 83 % 1017,0 hPa 0,0 l/m 0 min 0 min 0,0 UV-I 0 W/m 12,9 km/h (3 Bft)
22.02.2014 20:56 5,4 C 3,3 C 83 % 1017,1 hPa 0,0 l/m 0 min 0 min 0,0 UV-I 0 W/m 7,7 km/h (2 Bft)
22.02.2014 20:58 5,3 C 3,3 C 83 % 1017,1 hPa 0,0 l/m 0 min 0 min 0,0 UV-I 0 W/m 7,7 km/h (2 Bft)
22.02.2014 21:00 5,3 C 3,3 C 83 % 1017,1 hPa 0,0 l/m 0 min 0 min 0,0 UV-I 0 W/m 10,3 km/h (2 Bft)
22.02.2014 21:02 5,3 C 3,3 C 83 % 1017,2 hPa 0,0 l/m 0 min 0 min 0,0 UV-I 0 W/m 7,7 km/h (2 Bft)
22.02.2014 21:04 5,3 C 3,3 C 83 % 1017,1 hPa 0,0 l/m 0 min 0 min 0,0 UV-I 0 W/m 12,9 km/h (3 Bft)
22.02.2014 21:06 5,2 C 3,3 C 84 % 1017,1 hPa 0,0 l/m 0 min 0 min 0,0 UV-I 0 W/m 5,1 km/h (1 Bft)
22.02.2014 21:08 5,2 C 3,3 C 84 % 1017,1 hPa 0,0 l/m 0 min 0 min 0,0 UV-I 0 W/m 12,9 km/h (3 Bft)
22.02.2014 21:10 5,2 C 3,3 C 84 % 1017,2 hPa 0,0 l/m 0 min 0 min 0,0 UV-I 0 W/m 12,9 km/h (3 Bft)
22.02.2014 21:12 5,2 C 3,3 C 84 % 1017,3 hPa 0,0 l/m 0 min 0 min 0,0 UV-I 0 W/m 7,7 km/h (2 Bft)
22.02.2014 21:14 5,2 C 3,3 C 84 % 1017,3 hPa 0,0 l/m 0 min 0 min 0,0 UV-I 0 W/m 7,7 km/h (2 Bft)
22.02.2014 21:16 5,2 C 3,3 C 84 % 1017,3 hPa 0,0 l/m 0 min 0 min 0,0 UV-I 0 W/m 10,3 km/h (2 Bft)
22.02.2014 21:18 5,2 C 3,3 C 84 % 1017,3 hPa 0,0 l/m 0 min 0 min 0,0 UV-I 0 W/m 10,3 km/h (2 Bft)
22.02.2014 21:20 5,2 C 3,3 C 84 % 1017,4 hPa 0,0 l/m 0 min 0 min 0,0 UV-I 0 W/m 10,3 km/h (2 Bft)
22.02.2014 21:22 5,2 C 3,3 C 84 % 1017,3 hPa 0,0 l/m 0 min 0 min 0,0 UV-I 0 W/m 5,1 km/h (1 Bft)
22.02.2014 21:24 5,2 C 3,3 C 84 % 1017,3 hPa 0,0 l/m 0 min 0 min 0,0 UV-I 0 W/m 12,9 km/h (3 Bft)
22.02.2014 21:26 5,2 C 3,3 C 84 % 1017,4 hPa 0,0 l/m 0 min 0 min 0,0 UV-I 0 W/m 0,0 km/h (0 Bft)
22.02.2014 21:28 5,1 C 3,3 C 84 % 1017,3 hPa 0,0 l/m 0 min 0 min 0,0 UV-I 0 W/m 0,0 km/h (0 Bft)
22.02.2014 21:30 5,1 C 3,3 C 84 % 1017,3 hPa 0,0 l/m 0 min 0 min 0,0 UV-I 0 W/m 5,1 km/h (1 Bft)
22.02.2014 21:32 5,0 C 2,8 C 84 % 1017,3 hPa 0,0 l/m 0 min 0 min 0,0 UV-I 0 W/m 10,3 km/h (2 Bft)
22.02.2014 21:34 4,9 C 2,8 C 84 % 1017,4 hPa 0,0 l/m 0 min 0 min 0,0 UV-I 0 W/m 0,0 km/h (0 Bft)
22.02.2014 21:36 4,9 C 2,8 C 84 % 1017,5 hPa 0,0 l/m 0 min 0 min 0,0 UV-I 0 W/m 5,1 km/h (1 Bft)
22.02.2014 21:38 4,9 C 2,8 C 84 % 1017,6 hPa 0,0 l/m 0 min 0 min 0,0 UV-I 0 W/m 0,0 km/h (0 Bft)
22.02.2014 21:40 4,9 C 2,8 C 84 % 1017,6 hPa 0,0 l/m 0 min 0 min 0,0 UV-I 0 W/m 5,1 km/h (1 Bft)
22.02.2014 21:42 4,8 C 2,8 C 84 % 1017,6 hPa 0,0 l/m 0 min 0 min 0,0 UV-I 0 W/m 0,0 km/h (0 Bft)
22.02.2014 21:44 4,8 C 2,8 C 84 % 1017,6 hPa 0,0 l/m 0 min 0 min 0,0 UV-I 0 W/m 0,0 km/h (0 Bft)
22.02.2014 21:46 4,8 C 2,8 C 85 % 1017,7 hPa 0,0 l/m 0 min 0 min 0,0 UV-I 0 W/m 0,0 km/h (0 Bft)
22.02.2014 21:48 4,7 C 2,8 C 85 % 1017,7 hPa 0,0 l/m 0 min 0 min 0,0 UV-I 0 W/m 0,0 km/h (0 Bft)
22.02.2014 21:50 4,7 C 2,8 C 85 % 1017,7 hPa 0,0 l/m 0 min 0 min 0,0 UV-I 0 W/m 7,7 km/h (2 Bft)
22.02.2014 21:52 4,6 C 2,8 C 85 % 1017,7 hPa 0,0 l/m 0 min 0 min 0,0 UV-I 0 W/m 5,1 km/h (1 Bft)
22.02.2014 21:54 4,6 C 2,8 C 85 % 1017,7 hPa 0,0 l/m 0 min 0 min 0,0 UV-I 0 W/m 0,0 km/h (0 Bft)
22.02.2014 21:56 4,6 C 2,8 C 85 % 1017,8 hPa 0,0 l/m 0 min 0 min 0,0 UV-I 0 W/m 5,1 km/h (1 Bft)
22.02.2014 21:58 4,5 C 2,8 C 85 % 1017,8 hPa 0,0 l/m 0 min 0 min 0,0 UV-I 0 W/m 5,1 km/h (1 Bft)
22.02.2014 22:00 4,5 C 2,8 C 85 % 1017,8 hPa 0,0 l/m 0 min 0 min 0,0 UV-I 0 W/m 7,7 km/h (2 Bft)
22.02.2014 22:02 4,4 C 2,8 C 86 % 1017,8 hPa 0,0 l/m 0 min 0 min 0,0 UV-I 0 W/m 7,7 km/h (2 Bft)
22.02.2014 22:04 4,4 C 2,8 C 86 % 1017,8 hPa 0,0 l/m 0 min 0 min 0,0 UV-I 0 W/m 5,1 km/h (1 Bft)
22.02.2014 22:06 4,4 C 2,8 C 86 % 1017,7 hPa 0,0 l/m 0 min 0 min 0,0 UV-I 0 W/m 10,3 km/h (2 Bft)
22.02.2014 22:08 4,4 C 2,8 C 86 % 1017,7 hPa 0,0 l/m 0 min 0 min 0,0 UV-I 0 W/m 10,3 km/h (2 Bft)
22.02.2014 22:10 4,3 C 2,2 C 86 % 1017,7 hPa 0,0 l/m 0 min 0 min 0,0 UV-I 0 W/m 5,1 km/h (1 Bft)
22.02.2014 22:12 4,3 C 2,2 C 86 % 1017,7 hPa 0,0 l/m 0 min 0 min 0,0 UV-I 0 W/m 7,7 km/h (2 Bft)
22.02.2014 22:14 4,3 C 2,2 C 86 % 1017,7 hPa 0,0 l/m 0 min 0 min 0,0 UV-I 0 W/m 7,7 km/h (2 Bft)
22.02.2014 22:16 4,3 C 2,2 C 86 % 1017,8 hPa 0,0 l/m 0 min 0 min 0,0 UV-I 0 W/m 15,4 km/h (3 Bft)
22.02.2014 22:18 4,2 C 2,8 C 86 % 1017,8 hPa 0,0 l/m 0 min 0 min 0,0 UV-I 0 W/m 2,6 km/h (1 Bft)
22.02.2014 22:20 4,3 C 2,8 C 86 % 1017,9 hPa 0,0 l/m 0 min 0 min 0,0 UV-I 0 W/m 12,9 km/h (3 Bft)
22.02.2014 22:22 4,2 C 2,2 C 86 % 1017,9 hPa 0,0 l/m 0 min 0 min 0,0 UV-I 0 W/m 5,1 km/h (1 Bft)
22.02.2014 22:24 4,2 C 2,8 C 86 % 1018,0 hPa 0,0 l/m 0 min 0 min 0,0 UV-I 0 W/m 7,7 km/h (2 Bft)
22.02.2014 22:26 4,2 C 2,8 C 86 % 1018,0 hPa 0,0 l/m 0 min 0 min 0,0 UV-I 0 W/m 10,3 km/h (2 Bft)
22.02.2014 22:28 4,2 C 2,8 C 86 % 1018,2 hPa 0,0 l/m 0 min 0 min 0,0 UV-I 0 W/m 2,6 km/h (1 Bft)
22.02.2014 22:30 4,2 C 2,8 C 86 % 1018,2 hPa 0,0 l/m 0 min 0 min 0,0 UV-I 0 W/m 12,9 km/h (3 Bft)
22.02.2014 22:32 4,2 C 2,8 C 86 % 1018,2 hPa 0,0 l/m 0 min 0 min 0,0 UV-I 0 W/m 7,7 km/h (2 Bft)
22.02.2014 22:34 4,2 C 2,8 C 86 % 1018,3 hPa 0,0 l/m 0 min 0 min 0,0 UV-I 0 W/m 0,0 km/h (0 Bft)
22.02.2014 22:36 4,2 C 2,8 C 86 % 1018,3 hPa 0,0 l/m 0 min 0 min 0,0 UV-I 0 W/m 10,3 km/h (2 Bft)
22.02.2014 22:38 4,2 C 2,8 C 86 % 1018,3 hPa 0,0 l/m 0 min 0 min 0,0 UV-I 0 W/m 12,9 km/h (3 Bft)
22.02.2014 22:40 4,2 C 2,8 C 86 % 1018,3 hPa 0,0 l/m 0 min 0 min 0,0 UV-I 0 W/m 2,6 km/h (1 Bft)
22.02.2014 22:42 4,2 C 2,8 C 86 % 1018,3 hPa 0,0 l/m 0 min 0 min 0,0 UV-I 0 W/m 7,7 km/h (2 Bft)
22.02.2014 22:44 4,2 C 2,8 C 86 % 1018,3 hPa 0,0 l/m 0 min 0 min 0,0 UV-I 0 W/m 10,3 km/h (2 Bft)
22.02.2014 22:46 4,3 C 2,8 C 86 % 1018,3 hPa 0,0 l/m 0 min 0 min 0,0 UV-I 0 W/m 0,0 km/h (0 Bft)
22.02.2014 22:48 4,3 C 2,8 C 86 % 1018,3 hPa 0,0 l/m 0 min 0 min 0,0 UV-I 0 W/m 7,7 km/h (2 Bft)
22.02.2014 22:50 4,3 C 2,8 C 86 % 1018,3 hPa 0,0 l/m 0 min 0 min 0,0 UV-I 0 W/m 0,0 km/h (0 Bft)
22.02.2014 22:52 4,3 C 2,8 C 86 % 1018,4 hPa 0,0 l/m 0 min 0 min 0,0 UV-I 0 W/m 0,0 km/h (0 Bft)
22.02.2014 22:54 4,2 C 2,8 C 86 % 1018,4 hPa 0,0 l/m 0 min 0 min 0,0 UV-I 0 W/m 5,1 km/h (1 Bft)
22.02.2014 22:56 4,3 C 2,8 C 86 % 1018,5 hPa 0,0 l/m 0 min 0 min 0,0 UV-I 0 W/m 12,9 km/h (3 Bft)
22.02.2014 22:58 4,3 C 2,8 C 86 % 1018,4 hPa 0,0 l/m 0 min 0 min 0,0 UV-I 0 W/m 7,7 km/h (2 Bft)
22.02.2014 23:00 4,2 C 2,8 C 86 % 1018,5 hPa 0,0 l/m 0 min 0 min 0,0 UV-I 0 W/m 7,7 km/h (2 Bft)
22.02.2014 23:02 4,3 C 2,8 C 86 % 1018,5 hPa 0,0 l/m 0 min 0 min 0,0 UV-I 0 W/m 15,4 km/h (3 Bft)
22.02.2014 23:04 4,3 C 2,8 C 86 % 1018,5 hPa 0,0 l/m 0 min 0 min 0,0 UV-I 0 W/m 2,6 km/h (1 Bft)
22.02.2014 23:06 4,3 C 2,8 C 86 % 1018,5 hPa 0,0 l/m 0 min 0 min 0,0 UV-I 0 W/m 5,1 km/h (1 Bft)
22.02.2014 23:08 4,3 C 2,8 C 86 % 1018,5 hPa 0,0 l/m 0 min 0 min 0,0 UV-I 0 W/m 5,1 km/h (1 Bft)
22.02.2014 23:10 4,3 C 2,8 C 86 % 1018,6 hPa 0,0 l/m 0 min 0 min 0,0 UV-I 0 W/m 7,7 km/h (2 Bft)
22.02.2014 23:12 4,3 C 2,8 C 86 % 1018,6 hPa 0,0 l/m 0 min 0 min 0,0 UV-I 0 W/m 0,0 km/h (0 Bft)
22.02.2014 23:14 4,3 C 2,8 C 86 % 1018,5 hPa 0,0 l/m 0 min 0 min 0,0 UV-I 0 W/m 5,1 km/h (1 Bft)
22.02.2014 23:16 4,3 C 2,8 C 86 % 1018,5 hPa 0,0 l/m 0 min 0 min 0,0 UV-I 0 W/m 0,0 km/h (0 Bft)
22.02.2014 23:18 4,3 C 2,8 C 86 % 1018,5 hPa 0,0 l/m 0 min 0 min 0,0 UV-I 0 W/m 7,7 km/h (2 Bft)
22.02.2014 23:20 4,3 C 2,8 C 86 % 1018,5 hPa 0,0 l/m 0 min 0 min 0,0 UV-I 0 W/m 7,7 km/h (2 Bft)
22.02.2014 23:22 4,3 C 2,2 C 86 % 1018,6 hPa 0,0 l/m 0 min 0 min 0,0 UV-I 0 W/m 5,1 km/h (1 Bft)
22.02.2014 23:24 4,2 C 2,8 C 86 % 1018,6 hPa 0,0 l/m 0 min 0 min 0,0 UV-I 0 W/m 7,7 km/h (2 Bft)
22.02.2014 23:26 4,2 C 2,2 C 86 % 1018,6 hPa 0,0 l/m 0 min 0 min 0,0 UV-I 0 W/m 5,1 km/h (1 Bft)
22.02.2014 23:28 4,2 C 2,2 C 86 % 1018,6 hPa 0,0 l/m 0 min 0 min 0,0 UV-I 0 W/m 15,4 km/h (3 Bft)
22.02.2014 23:30 4,2 C 2,2 C 86 % 1018,6 hPa 0,0 l/m 0 min 0 min 0,0 UV-I 0 W/m 7,7 km/h (2 Bft)
22.02.2014 23:32 4,2 C 2,2 C 86 % 1018,7 hPa 0,0 l/m 0 min 0 min 0,0 UV-I 0 W/m 7,7 km/h (2 Bft)
22.02.2014 23:34 4,2 C 2,2 C 85 % 1018,6 hPa 0,0 l/m 0 min 0 min 0,0 UV-I 0 W/m 0,0 km/h (0 Bft)
22.02.2014 23:36 4,2 C 2,2 C 86 % 1018,6 hPa 0,0 l/m 0 min 0 min 0,0 UV-I 0 W/m 7,7 km/h (2 Bft)
22.02.2014 23:38 4,2 C 2,2 C 86 % 1018,5 hPa 0,0 l/m 0 min 0 min 0,0 UV-I 0 W/m 0,0 km/h (0 Bft)
22.02.2014 23:40 4,2 C 2,2 C 86 % 1018,5 hPa 0,0 l/m 0 min 0 min 0,0 UV-I 0 W/m 2,6 km/h (1 Bft)
22.02.2014 23:42 4,1 C 2,2 C 86 % 1018,5 hPa 0,0 l/m 0 min 0 min 0,0 UV-I 0 W/m 0,0 km/h (0 Bft)
22.02.2014 23:44 4,1 C 2,2 C 86 % 1018,5 hPa 0,0 l/m 0 min 0 min 0,0 UV-I 0 W/m 7,7 km/h (2 Bft)
22.02.2014 23:46 4,1 C 2,2 C 86 % 1018,6 hPa 0,0 l/m 0 min 0 min 0,0 UV-I 0 W/m 5,1 km/h (1 Bft)
22.02.2014 23:48 4,1 C 2,2 C 86 % 1018,6 hPa 0,0 l/m 0 min 0 min 0,0 UV-I 0 W/m 0,0 km/h (0 Bft)
22.02.2014 23:50 4,1 C 2,2 C 86 % 1018,6 hPa 0,0 l/m 0 min 0 min 0,0 UV-I 0 W/m 2,6 km/h (1 Bft)
22.02.2014 23:52 4,0 C 2,2 C 86 % 1018,5 hPa 0,0 l/m 0 min 0 min 0,0 UV-I 0 W/m 10,3 km/h (2 Bft)
22.02.2014 23:54 4,0 C 2,2 C 86 % 1018,6 hPa 0,0 l/m 0 min 0 min 0,0 UV-I 0 W/m 0,0 km/h (0 Bft)
22.02.2014 23:56 4,0 C 2,2 C 86 % 1018,6 hPa 0,0 l/m 0 min 0 min 0,0 UV-I 0 W/m 2,6 km/h (1 Bft)
22.02.2014 23:58 3,9 C 2,2 C 86 % 1018,6 hPa 0,0 l/m 0 min 0 min 0,0 UV-I 0 W/m 0,0 km/h (0 Bft)
_ Min-Zeit 00:00 00:00 16:14 04:16 - - - - - 00:20
Minimum _ 3,9 C 2,2 C 79 % 1009,2 hPa - - - - - 0,0 km/h (0 Bft)
_ Max-Zeit 16:12 12:38 07:48 23:32 08:52 07:46 07:52 00:00 16:04 11:44
Maximum _ 8,1 C 7,2 C 92 % 1018,7 hPa 0,2 l/m 2 min 2 min 0,0 UV-I 279 W/m 30,9 km/h
S (5 Bft)
Durchschnitt _ 5,5 C 4,2 C 85 % 1012,7 hPa #0,2 l/m #52 min. #1:20 h 0,0 UV-I 94 W/m 10,6 km/h (2 Bft)
© 2014 W. Hausmann